Time,TemperatureF,DewpointF,PressureIn,WindDirection,WindDirectionDegrees,WindSpeedMPH,WindSpeedGustMPH,Humidity,HourlyPrecipIn,Conditions,Clouds,dailyrainin,SoftwareType,DateUTC
2013-04-08 00:03:00,57.1,42.5,29.81,East,101,3.0,3.0,58,0.00,,,0.00,Wunderground v.1.15,2013-04-08 05:03:00,
2013-04-08 00:05:00,57.0,42.4,29.81,East,84,3.0,3.0,58,0.00,,,0.00,Wunderground v.1.15,2013-04-08 05:05:00,
2013-04-08 00:09:00,57.0,42.4,29.81,ENE,58,2.0,3.0,58,0.00,,,0.00,Wunderground v.1.15,2013-04-08 05:09:00,
2013-04-08 00:12:00,57.0,42.4,29.81,East,96,2.0,5.0,58,0.00,,,0.00,Wunderground v.1.15,2013-04-08 05:12:00,
2013-04-08 00:13:00,56.9,42.3,29.81,ENE,74,2.0,5.0,58,0.00,,,0.00,Wunderground v.1.15,2013-04-08 05:13:00,
2013-04-08 00:14:00,57.0,42.4,29.81,ENE,75,3.0,9.0,58,0.00,,,0.00,Wunderground v.1.15,2013-04-08 05:14:00,
2013-04-08 00:17:00,56.9,42.7,29.81,East,88,3.0,9.0,59,0.00,,,0.00,Wunderground v.1.15,2013-04-08 05:17:00,
2013-04-08 00:18:00,56.9,42.7,29.81,SE,131,3.0,9.0,59,0.00,,,0.00,Wunderground v.1.15,2013-04-08 05:18:00,
2013-04-08 00:19:00,56.8,42.6,29.81,SE,125,3.0,9.0,59,0.00,,,0.00,Wunderground v.1.15,2013-04-08 05:19:00,
2013-04-08 00:21:00,56.8,42.6,29.81,SE,129,3.0,5.0,59,0.00,,,0.00,Wunderground v.1.15,2013-04-08 05:21:00,
2013-04-08 00:23:00,56.9,42.7,29.81,SE,130,3.0,6.0,59,0.00,,,0.00,Wunderground v.1.15,2013-04-08 05:23:00,
2013-04-08 00:25:00,56.9,42.7,29.81,ESE,115,3.0,7.0,59,0.00,,,0.00,Wunderground v.1.15,2013-04-08 05:25:00,
2013-04-08 00:26:00,57.0,42.8,29.81,ESE,117,4.0,7.0,59,0.00,,,0.00,Wunderground v.1.15,2013-04-08 05:26:00,
2013-04-08 00:28:00,57.1,42.5,29.81,SE,139,4.0,13.0,58,0.00,,,0.00,Wunderground v.1.15,2013-04-08 05:28:00,
2013-04-08 00:31:00,57.2,42.5,29.80,East,94,5.0,6.0,58,0.00,,,0.00,Wunderground v.1.15,2013-04-08 05:31:00,
2013-04-08 00:32:00,57.2,42.5,29.80,ESE,105,6.0,6.0,58,0.00,,,0.00,Wunderground v.1.15,2013-04-08 05:32:00,
2013-04-08 00:35:00,57.2,42.5,29.81,East,99,5.0,6.0,58,0.00,,,0.00,Wunderground v.1.15,2013-04-08 05:35:00,
2013-04-08 00:37:00,57.2,42.5,29.80,ESE,107,5.0,6.0,58,0.00,,,0.00,Wunderground v.1.15,2013-04-08 05:37:00,
2013-04-08 00:41:00,57.1,42.5,29.80,ESE,105,4.0,6.0,58,0.00,,,0.00,Wunderground v.1.15,2013-04-08 05:41:00,
2013-04-08 00:42:00,57.2,42.5,29.80,East,98,4.0,6.0,58,0.00,,,0.00,Wunderground v.1.15,2013-04-08 05:42:00,
2013-04-08 00:46:00,57.2,42.5,29.79,ESE,114,4.0,6.0,58,0.00,,,0.00,Wunderground v.1.15,2013-04-08 05:46:00,
2013-04-08 00:48:00,57.3,42.6,29.79,East,97,4.0,6.0,58,0.00,,,0.00,Wunderground v.1.15,2013-04-08 05:48:00,
2013-04-08 00:51:00,57.4,42.7,29.79,ENE,58,4.0,5.0,58,0.00,,,0.00,Wunderground v.1.15,2013-04-08 05:51:00,
2013-04-08 00:54:00,57.4,43.2,29.79,NE,40,4.0,5.0,59,0.00,,,0.00,Wunderground v.1.15,2013-04-08 05:54:00,
2013-04-08 00:55:00,57.3,42.6,29.78,ESE,117,4.0,5.0,58,0.00,,,0.00,Wunderground v.1.15,2013-04-08 05:55:00,
2013-04-08 00:56:00,57.3,42.6,29.78,ENE,78,4.0,5.0,58,0.00,,,0.00,Wunderground v.1.15,2013-04-08 05:56:00,
2013-04-08 01:00:00,57.3,43.1,29.78,ENE,75,3.0,6.0,59,0.00,,,0.00,Wunderground v.1.15,2013-04-08 06:00:00,
2013-04-08 01:01:00,57.3,43.1,29.78,SE,128,3.0,7.0,59,0.00,,,0.00,Wunderground v.1.15,2013-04-08 06:01:00,
2013-04-08 01:02:00,57.3,43.1,29.78,East,94,4.0,7.0,59,0.00,,,0.00,Wunderground v.1.15,2013-04-08 06:02:00,
2013-04-08 01:06:00,57.1,43.3,29.78,East,85,4.0,9.0,60,0.00,,,0.00,Wunderground v.1.15,2013-04-08 06:06:00,
2013-04-08 01:07:00,57.0,43.2,29.77,SE,125,4.0,9.0,60,0.00,,,0.00,Wunderground v.1.15,2013-04-08 06:07:00,
2013-04-08 01:09:00,57.0,43.2,29.77,ESE,110,3.0,9.0,60,0.00,,,0.00,Wunderground v.1.15,2013-04-08 06:09:00,
2013-04-08 01:13:00,56.7,43.0,29.77,ESE,105,3.0,4.0,60,0.00,,,0.00,Wunderground v.1.15,2013-04-08 06:13:00,
2013-04-08 01:14:00,56.7,43.4,29.77,NE,49,3.0,4.0,61,0.00,,,0.00,Wunderground v.1.15,2013-04-08 06:14:00,
2013-04-08 01:15:00,56.7,43.4,29.77,ESE,121,3.0,7.0,61,0.00,,,0.00,Wunderground v.1.15,2013-04-08 06:15:00,
2013-04-08 01:19:00,56.5,43.2,29.76,ENE,76,4.0,7.0,61,0.00,,,0.00,Wunderground v.1.15,2013-04-08 06:19:00,
2013-04-08 01:20:00,56.4,43.1,29.76,East,101,4.0,5.0,61,0.00,,,0.00,Wunderground v.1.15,2013-04-08 06:20:00,
2013-04-08 01:21:00,56.4,43.1,29.76,ESE,114,4.0,5.0,61,0.00,,,0.00,Wunderground v.1.15,2013-04-08 06:21:00,
2013-04-08 01:25:00,56.2,43.3,29.76,East,98,4.0,9.0,62,0.00,,,0.00,Wunderground v.1.15,2013-04-08 06:25:00,
2013-04-08 01:27:00,56.2,43.3,29.76,ENE,71,4.0,9.0,62,0.00,,,0.00,Wunderground v.1.15,2013-04-08 06:27:00,
2013-04-08 01:30:00,56.2,43.3,29.76,ENE,64,4.0,4.0,62,0.00,,,0.00,Wunderground v.1.15,2013-04-08 06:30:00,
2013-04-08 01:34:00,56.0,43.2,29.76,ENE,64,4.0,6.0,62,0.00,,,0.00,Wunderground v.1.15,2013-04-08 06:34:00,
2013-04-08 01:37:00,55.8,43.4,29.76,ENE,71,3.0,6.0,63,0.00,,,0.00,Wunderground v.1.15,2013-04-08 06:37:00,
2013-04-08 01:38:00,55.7,43.3,29.76,ENE,77,3.0,6.0,63,0.00,,,0.00,Wunderground v.1.15,2013-04-08 06:38:00,
2013-04-08 01:39:00,55.7,43.3,29.76,ENE,64,3.0,6.0,63,0.00,,,0.00,Wunderground v.1.15,2013-04-08 06:39:00,
2013-04-08 01:42:00,55.6,43.6,29.76,ENE,64,2.0,7.0,64,0.00,,,0.00,Wunderground v.1.15,2013-04-08 06:42:00,
2013-04-08 01:44:00,55.5,43.5,29.76,East,85,2.0,7.0,64,0.00,,,0.00,Wunderground v.1.15,2013-04-08 06:44:00,
2013-04-08 01:46:00,55.5,43.5,29.76,ENE,72,3.0,7.0,64,0.00,,,0.00,Wunderground v.1.15,2013-04-08 06:46:00,
2013-04-08 01:48:00,55.5,43.5,29.76,ENE,72,3.0,7.0,64,0.00,,,0.00,Wunderground v.1.15,2013-04-08 06:48:00,
2013-04-08 01:49:00,55.6,44.0,29.76,ESE,103,3.0,7.0,65,0.00,,,0.00,Wunderground v.1.15,2013-04-08 06:49:00,
2013-04-08 01:53:00,55.5,43.9,29.76,ENE,75,2.0,3.0,65,0.00,,,0.00,Wunderground v.1.15,2013-04-08 06:53:00,
2013-04-08 01:55:00,55.5,43.9,29.76,East,90,2.0,3.0,65,0.00,,,0.00,Wunderground v.1.15,2013-04-08 06:55:00,
2013-04-08 01:56:00,55.5,43.9,29.76,ESE,122,2.0,3.0,65,0.00,,,0.00,Wunderground v.1.15,2013-04-08 06:56:00,
2013-04-08 01:57:00,55.5,43.9,29.76,East,81,2.0,3.0,65,0.00,,,0.00,Wunderground v.1.15,2013-04-08 06:57:00,
2013-04-08 01:59:00,55.5,44.3,29.76,ESE,110,2.0,3.0,66,0.00,,,0.00,Wunderground v.1.15,2013-04-08 06:59:00,
2013-04-08 02:01:00,55.5,44.3,29.76,East,96,2.0,3.0,66,0.00,,,0.00,Wunderground v.1.15,2013-04-08 07:01:00,
2013-04-08 02:02:00,55.5,44.3,29.76,East,92,2.0,3.0,66,0.00,,,0.00,Wunderground v.1.15,2013-04-08 07:02:00,
2013-04-08 02:07:00,55.3,44.9,29.75,ENE,75,1.0,3.0,68,0.00,,,0.00,Wunderground v.1.15,2013-04-08 07:07:00,
2013-04-08 02:08:00,55.3,45.3,29.75,NE,42,1.0,3.0,69,0.00,,,0.00,Wunderground v.1.15,2013-04-08 07:08:00,
2013-04-08 02:11:00,55.3,45.7,29.75,East,96,1.0,1.0,70,0.00,,,0.00,Wunderground v.1.15,2013-04-08 07:11:00,
2013-04-08 02:13:00,55.3,46.1,29.75,ESE,117,1.0,2.0,71,0.00,,,0.00,Wunderground v.1.15,2013-04-08 07:13:00,
2013-04-08 02:14:00,55.3,46.1,29.75,East,94,1.0,4.0,71,0.00,,,0.00,Wunderground v.1.15,2013-04-08 07:14:00,
2013-04-08 02:17:00,55.3,46.8,29.75,ESE,105,1.0,4.0,73,0.00,,,0.00,Wunderground v.1.15,2013-04-08 07:17:00,
2013-04-08 02:18:00,55.3,46.8,29.75,East,88,1.0,4.0,73,0.00,,,0.00,Wunderground v.1.15,2013-04-08 07:18:00,
2013-04-08 02:20:00,55.3,47.5,29.75,East,86,1.0,1.0,75,0.00,,,0.00,Wunderground v.1.15,2013-04-08 07:20:00,
2013-04-08 02:22:00,55.3,47.9,29.74,East,98,1.0,2.0,76,0.00,,,0.00,Wunderground v.1.15,2013-04-08 07:22:00,
2013-04-08 02:26:00,55.2,48.8,29.74,East,90,1.0,2.0,79,0.00,,,0.01,Wunderground v.1.15,2013-04-08 07:26:00,
2013-04-08 02:28:00,55.1,49.0,29.74,ESE,103,1.0,2.0,80,0.00,,,0.01,Wunderground v.1.15,2013-04-08 07:28:00,
2013-04-08 02:29:00,55.1,49.4,29.74,ENE,77,0.0,2.0,81,0.00,,,0.01,Wunderground v.1.15,2013-04-08 07:29:00,
2013-04-08 02:33:00,55.1,50.4,29.74,SE,141,1.0,5.0,84,0.26,,,0.03,Wunderground v.1.15,2013-04-08 07:33:00,
2013-04-08 02:35:00,55.3,51.2,29.74,SE,131,1.0,7.0,86,1.34,,,0.07,Wunderground v.1.15,2013-04-08 07:35:00,
2013-04-08 02:37:00,55.6,52.4,29.74,ESE,107,3.0,8.0,89,1.46,,,0.13,Wunderground v.1.15,2013-04-08 07:37:00,
2013-04-08 02:40:00,55.8,52.9,29.73,East,83,4.0,4.0,90,0.55,,,0.23,Wunderground v.1.15,2013-04-08 07:40:00,
2013-04-08 02:42:00,55.8,52.9,29.73,ENE,64,4.0,5.0,90,0.55,,,0.24,Wunderground v.1.15,2013-04-08 07:42:00,
2013-04-08 02:43:00,55.8,52.9,29.73,ESE,120,4.0,5.0,90,0.29,,,0.24,Wunderground v.1.15,2013-04-08 07:43:00,
2013-04-08 02:47:00,55.8,53.2,29.73,ESE,102,2.0,5.0,91,0.26,,,0.26,Wunderground v.1.15,2013-04-08 07:47:00,
2013-04-08 02:48:00,55.9,53.6,29.72,East,87,2.0,5.0,92,0.26,,,0.26,Wunderground v.1.15,2013-04-08 07:48:00,
2013-04-08 02:52:00,56.1,53.8,29.71,East,82,2.0,4.0,92,0.16,,,0.27,Wunderground v.1.15,2013-04-08 07:52:00,
2013-04-08 02:53:00,56.1,54.1,29.72,ESE,107,2.0,4.0,93,0.16,,,0.27,Wunderground v.1.15,2013-04-08 07:53:00,
2013-04-08 02:54:00,56.1,54.1,29.72,East,101,1.0,4.0,93,0.15,,,0.28,Wunderground v.1.15,2013-04-08 07:54:00,
2013-04-08 02:59:00,56.0,53.7,29.71,ENE,72,1.0,4.0,92,0.22,,,0.29,Wunderground v.1.15,2013-04-08 07:59:00,
2013-04-08 03:02:00,55.9,53.9,29.72,ESE,110,0.0,4.0,93,0.25,,,0.31,Wunderground v.1.15,2013-04-08 08:02:00,
2013-04-08 03:03:00,55.9,53.9,29.72,SE,124,1.0,4.0,93,0.25,,,0.31,Wunderground v.1.15,2013-04-08 08:03:00,
2013-04-08 03:06:00,56.1,54.4,29.72,East,85,2.0,4.0,94,0.16,,,0.32,Wunderground v.1.15,2013-04-08 08:06:00,
2013-04-08 03:09:00,56.3,54.6,29.73,ESE,114,2.0,4.0,94,2.91,,,0.39,Wunderground v.1.15,2013-04-08 08:09:00,
2013-04-08 03:13:00,56.4,54.7,29.72,East,92,2.0,3.0,94,1.32,,,0.48,Wunderground v.1.15,2013-04-08 08:13:00,
2013-04-08 03:14:00,56.4,54.7,29.72,ENE,58,1.0,3.0,94,1.15,,,0.50,Wunderground v.1.15,2013-04-08 08:14:00,
2013-04-08 03:18:00,56.4,54.7,29.72,ENE,65,1.0,3.0,94,0.44,,,0.54,Wunderground v.1.15,2013-04-08 08:18:00,
2013-04-08 03:20:00,56.3,54.6,29.72,East,81,0.0,0.0,94,0.56,,,0.57,Wunderground v.1.15,2013-04-08 08:20:00,
2013-04-08 03:21:00,56.2,54.5,29.71,NNE,23,0.0,0.0,94,0.55,,,0.57,Wunderground v.1.15,2013-04-08 08:21:00,
2013-04-08 03:22:00,56.1,54.4,29.71,NE,49,0.0,0.0,94,0.47,,,0.58,Wunderground v.1.15,2013-04-08 08:22:00,
2013-04-08 03:25:00,55.6,53.6,29.71,NE,49,0.0,2.0,93,0.72,,,0.61,Wunderground v.1.15,2013-04-08 08:25:00,
2013-04-08 03:28:00,55.3,53.3,29.71,ENE,78,0.0,2.0,93,0.69,,,0.64,Wunderground v.1.15,2013-04-08 08:28:00,
2013-04-08 03:29:00,55.2,53.5,29.71,ENE,64,0.0,2.0,94,0.60,,,0.65,Wunderground v.1.15,2013-04-08 08:29:00,
2013-04-08 03:30:00,55.1,53.4,29.71,ENE,62,0.0,0.0,94,0.42,,,0.66,Wunderground v.1.15,2013-04-08 08:30:00,
2013-04-08 03:32:00,54.9,53.2,29.71,ESE,107,0.0,0.0,94,0.32,,,0.67,Wunderground v.1.15,2013-04-08 08:32:00,
2013-04-08 03:34:00,54.8,53.1,29.71,ESE,123,0.0,0.0,94,0.34,,,0.68,Wunderground v.1.15,2013-04-08 08:34:00,
2013-04-08 03:35:00,54.7,53.0,29.71,ESE,122,0.0,0.0,94,0.39,,,0.69,Wunderground v.1.15,2013-04-08 08:35:00,
2013-04-08 03:37:00,54.7,53.0,29.71,ESE,123,0.0,0.0,94,0.69,,,0.70,Wunderground v.1.15,2013-04-08 08:37:00,
2013-04-08 03:39:00,54.6,52.9,29.70,ESE,122,0.0,0.0,94,0.47,,,0.73,Wunderground v.1.15,2013-04-08 08:39:00,
2013-04-08 03:43:00,54.5,53.1,29.70,NE,56,0.0,0.0,95,0.38,,,0.75,Wunderground v.1.15,2013-04-08 08:43:00,
2013-04-08 03:44:00,54.6,53.2,29.70,ENE,60,0.0,0.0,95,0.38,,,0.75,Wunderground v.1.15,2013-04-08 08:44:00,
2013-04-08 03:48:00,54.5,53.1,29.69,ENE,71,0.0,0.0,95,0.32,,,0.77,Wunderground v.1.15,2013-04-08 08:48:00,
2013-04-08 03:49:00,54.6,53.2,29.69,NE,46,0.0,0.0,95,0.28,,,0.77,Wunderground v.1.15,2013-04-08 08:49:00,
2013-04-08 03:50:00,54.6,53.2,29.69,NE,47,0.0,0.0,95,0.19,,,0.77,Wunderground v.1.15,2013-04-08 08:50:00,
2013-04-08 03:51:00,54.6,53.2,29.69,NE,47,0.0,0.0,95,0.14,,,0.77,Wunderground v.1.15,2013-04-08 08:51:00,
2013-04-08 03:55:00,54.8,53.7,29.69,ENE,60,0.0,1.0,96,0.11,,,0.78,Wunderground v.1.15,2013-04-08 08:55:00,
2013-04-08 03:56:00,54.8,53.7,29.69,ENE,71,0.0,1.0,96,0.11,,,0.78,Wunderground v.1.15,2013-04-08 08:56:00,
2013-04-08 03:58:00,54.9,53.8,29.69,ESE,122,0.0,1.0,96,0.11,,,0.78,Wunderground v.1.15,2013-04-08 08:58:00,
2013-04-08 04:00:00,55.0,53.9,29.68,ESE,110,0.0,0.0,96,0.11,,,0.79,Wunderground v.1.15,2013-04-08 09:00:00,
2013-04-08 04:03:00,55.4,54.3,29.68,East,94,0.0,0.0,96,0.14,,,0.80,Wunderground v.1.15,2013-04-08 09:03:00,
2013-04-08 04:05:00,55.6,54.5,29.68,East,80,0.0,0.0,96,0.14,,,0.80,Wunderground v.1.15,2013-04-08 09:05:00,
2013-04-08 04:07:00,55.5,54.4,29.67,NE,43,0.0,0.0,96,0.13,,,0.80,Wunderground v.1.15,2013-04-08 09:07:00,
2013-04-08 04:08:00,55.4,54.3,29.67,NE,44,0.0,0.0,96,0.11,,,0.80,Wunderground v.1.15,2013-04-08 09:08:00,
2013-04-08 04:10:00,55.2,54.1,29.67,ENE,76,0.0,0.0,96,0.08,,,0.80,Wunderground v.1.15,2013-04-08 09:10:00,
2013-04-08 04:12:00,55.1,53.7,29.68,ESE,103,0.0,0.0,95,0.06,,,0.80,Wunderground v.1.15,2013-04-08 09:12:00,
2013-04-08 04:15:00,55.1,54.0,29.67,East,81,0.0,0.0,96,0.05,,,0.81,Wunderground v.1.15,2013-04-08 09:15:00,
2013-04-08 04:16:00,55.1,54.0,29.67,NE,49,0.0,0.0,96,0.05,,,0.81,Wunderground v.1.15,2013-04-08 09:16:00,
2013-04-08 04:17:00,55.2,54.1,29.67,East,84,0.0,0.0,96,0.05,,,0.81,Wunderground v.1.15,2013-04-08 09:17:00,
2013-04-08 04:20:00,55.1,54.0,29.66,NE,44,0.0,3.0,96,0.13,,,0.82,Wunderground v.1.15,2013-04-08 09:20:00,
2013-04-08 04:22:00,55.0,53.9,29.65,ENE,72,0.0,3.0,96,0.13,,,0.82,Wunderground v.1.15,2013-04-08 09:22:00,
2013-04-08 04:23:00,55.0,53.9,29.65,NE,36,0.0,3.0,96,0.14,,,0.82,Wunderground v.1.15,2013-04-08 09:23:00,
2013-04-08 04:24:00,54.9,53.8,29.65,ESE,113,0.0,3.0,96,0.14,,,0.83,Wunderground v.1.15,2013-04-08 09:24:00,
2013-04-08 04:26:00,54.9,53.8,29.65,East,95,0.0,3.0,96,0.14,,,0.83,Wunderground v.1.15,2013-04-08 09:26:00,
2013-04-08 04:30:00,55.8,55.0,29.65,SE,126,1.0,5.0,97,0.08,,,0.83,Wunderground v.1.15,2013-04-08 09:30:00,
2013-04-08 04:33:00,56.5,55.7,29.65,SE,125,3.0,7.0,97,0.07,,,0.84,Wunderground v.1.15,2013-04-08 09:33:00,
2013-04-08 04:35:00,56.7,55.9,29.64,East,98,4.0,10.0,97,0.07,,,0.84,Wunderground v.1.15,2013-04-08 09:35:00,
2013-04-08 04:37:00,56.9,56.1,29.64,ESE,109,5.0,12.0,97,0.07,,,0.84,Wunderground v.1.15,2013-04-08 09:37:00,
2013-04-08 04:39:00,57.1,56.3,29.64,SE,146,7.0,12.0,97,0.09,,,0.85,Wunderground v.1.15,2013-04-08 09:39:00,
2013-04-08 04:41:00,57.2,56.4,29.64,ESE,108,7.0,8.0,97,0.28,,,0.86,Wunderground v.1.15,2013-04-08 09:41:00,
2013-04-08 04:43:00,57.3,56.5,29.64,SSE,148,7.0,8.0,97,0.21,,,0.86,Wunderground v.1.15,2013-04-08 09:43:00,
2013-04-08 04:45:00,57.4,56.6,29.64,SSE,148,8.0,10.0,97,1.68,,,0.88,Wunderground v.1.15,2013-04-08 09:45:00,
2013-04-08 04:47:00,57.5,56.7,29.64,SSE,150,8.0,10.0,97,0.42,,,0.90,Wunderground v.1.15,2013-04-08 09:47:00,
2013-04-08 04:48:00,57.5,56.7,29.64,South,184,8.0,10.0,97,0.24,,,0.90,Wunderground v.1.15,2013-04-08 09:48:00,
2013-04-08 04:50:00,57.6,56.8,29.64,SE,141,8.0,8.0,97,0.23,,,0.91,Wunderground v.1.15,2013-04-08 09:50:00,
2013-04-08 04:52:00,57.6,56.8,29.64,SE,141,8.0,9.0,97,0.43,,,0.93,Wunderground v.1.15,2013-04-08 09:52:00,
2013-04-08 04:54:00,57.7,56.9,29.64,ESE,117,8.0,9.0,97,0.40,,,0.94,Wunderground v.1.15,2013-04-08 09:54:00,
2013-04-08 04:59:00,57.8,56.7,29.62,ESE,123,9.0,11.0,96,0.32,,,0.96,Wunderground v.1.15,2013-04-08 09:59:00,
2013-04-08 05:00:00,57.8,56.7,29.61,ESE,112,9.0,13.0,96,0.22,,,0.97,Wunderground v.1.15,2013-04-08 10:00:00,
2013-04-08 05:01:00,57.8,56.7,29.60,ESE,120,9.0,13.0,96,0.22,,,0.97,Wunderground v.1.15,2013-04-08 10:01:00,
2013-04-08 05:02:00,57.8,56.7,29.60,SSE,165,10.0,13.0,96,0.31,,,0.98,Wunderground v.1.15,2013-04-08 10:02:00,
2013-04-08 05:05:00,57.8,56.7,29.59,ESE,110,10.0,13.0,96,0.14,,,0.98,Wunderground v.1.15,2013-04-08 10:05:00,
2013-04-08 05:08:00,57.8,56.7,29.57,ESE,117,10.0,13.0,96,0.10,,,0.98,Wunderground v.1.15,2013-04-08 10:08:00,
2013-04-08 05:10:00,57.9,56.8,29.56,SE,144,11.0,11.0,96,0.07,,,0.98,Wunderground v.1.15,2013-04-08 10:10:00,
2013-04-08 05:11:00,57.9,56.8,29.56,SE,128,11.0,12.0,96,0.07,,,0.98,Wunderground v.1.15,2013-04-08 10:11:00,
2013-04-08 05:15:00,58.0,56.9,29.58,SSE,156,12.0,18.0,96,0.05,,,0.98,Wunderground v.1.15,2013-04-08 10:15:00,
2013-04-08 05:17:00,58.2,56.8,29.59,SSE,152,12.0,18.0,95,0.04,,,0.98,Wunderground v.1.15,2013-04-08 10:17:00,
2013-04-08 05:18:00,58.2,56.8,29.60,South,183,13.0,18.0,95,0.04,,,0.98,Wunderground v.1.15,2013-04-08 10:18:00,
2013-04-08 05:19:00,58.3,56.9,29.60,SE,144,13.0,18.0,95,0.00,,,0.98,Wunderground v.1.15,2013-04-08 10:19:00,
2013-04-08 05:22:00,58.4,56.7,29.60,SSE,150,13.0,15.0,94,0.00,,,0.98,Wunderground v.1.15,2013-04-08 10:22:00,
2013-04-08 05:26:00,58.4,56.7,29.60,South,177,12.0,15.0,94,0.00,,,0.98,Wunderground v.1.15,2013-04-08 10:26:00,
2013-04-08 05:27:00,58.4,56.7,29.60,SSE,151,12.0,15.0,94,0.00,,,0.98,Wunderground v.1.15,2013-04-08 10:27:00,
2013-04-08 05:29:00,58.4,56.7,29.60,South,191,12.0,16.0,94,0.00,,,0.98,Wunderground v.1.15,2013-04-08 10:29:00,
2013-04-08 05:31:00,58.5,56.8,29.60,SE,141,12.0,14.0,94,0.00,,,0.98,Wunderground v.1.15,2013-04-08 10:31:00,
2013-04-08 05:32:00,58.5,56.8,29.60,SSE,163,12.0,14.0,94,0.00,,,0.98,Wunderground v.1.15,2013-04-08 10:32:00,
2013-04-08 05:33:00,58.4,56.4,29.61,South,170,12.0,17.0,93,0.00,,,0.98,Wunderground v.1.15,2013-04-08 10:33:00,
2013-04-08 05:36:00,58.4,56.4,29.61,SSE,165,12.0,17.0,93,0.00,,,0.98,Wunderground v.1.15,2013-04-08 10:36:00,
2013-04-08 05:37:00,58.4,56.4,29.61,South,181,12.0,17.0,93,0.00,,,0.98,Wunderground v.1.15,2013-04-08 10:37:00,
2013-04-08 05:39:00,58.4,56.4,29.61,South,174,13.0,17.0,93,0.00,,,0.98,Wunderground v.1.15,2013-04-08 10:39:00,
2013-04-08 05:41:00,58.4,56.4,29.60,South,187,12.0,16.0,93,0.00,,,0.98,Wunderground v.1.15,2013-04-08 10:41:00,
2013-04-08 05:43:00,58.3,56.3,29.60,SSE,163,13.0,16.0,93,0.00,,,0.98,Wunderground v.1.15,2013-04-08 10:43:00,
2013-04-08 05:46:00,58.3,56.3,29.60,SSE,167,13.0,19.0,93,0.00,,,0.98,Wunderground v.1.15,2013-04-08 10:46:00,
2013-04-08 05:47:00,58.3,56.3,29.59,South,187,13.0,19.0,93,0.00,,,0.98,Wunderground v.1.15,2013-04-08 10:47:00,
2013-04-08 05:49:00,58.3,56.3,29.59,SSE,163,13.0,19.0,93,0.00,,,0.98,Wunderground v.1.15,2013-04-08 10:49:00,
2013-04-08 05:50:00,58.3,56.3,29.59,SSE,160,13.0,14.0,93,0.00,,,0.98,Wunderground v.1.15,2013-04-08 10:50:00,
2013-04-08 05:52:00,58.3,56.3,29.59,SSE,163,14.0,17.0,93,0.00,,,0.98,Wunderground v.1.15,2013-04-08 10:52:00,
2013-04-08 05:53:00,58.4,56.4,29.59,SSE,160,14.0,17.0,93,0.00,,,0.98,Wunderground v.1.15,2013-04-08 10:53:00,
2013-04-08 05:56:00,58.4,56.1,29.59,SSE,153,14.0,17.0,92,0.00,,,0.98,Wunderground v.1.15,2013-04-08 10:56:00,
2013-04-08 05:57:00,58.4,56.1,29.59,SSW,195,14.0,17.0,92,0.00,,,0.98,Wunderground v.1.15,2013-04-08 10:57:00,
2013-04-08 05:58:00,58.3,56.0,29.59,SSE,157,13.0,21.0,92,0.00,,,0.98,Wunderground v.1.15,2013-04-08 10:58:00,
2013-04-08 05:59:00,58.3,56.0,29.59,SSE,148,13.0,21.0,92,0.00,,,0.98,Wunderground v.1.15,2013-04-08 10:59:00,
2013-04-08 06:04:00,58.3,56.0,29.59,SSE,158,13.0,15.0,92,0.00,,,0.98,Wunderground v.1.15,2013-04-08 11:04:00,
2013-04-08 06:05:00,58.3,56.0,29.59,SSE,165,14.0,15.0,92,0.00,,,0.98,Wunderground v.1.15,2013-04-08 11:05:00,
2013-04-08 06:07:00,58.3,56.0,29.59,South,172,13.0,17.0,92,0.00,,,0.98,Wunderground v.1.15,2013-04-08 11:07:00,
2013-04-08 06:09:00,58.3,56.0,29.59,South,170,14.0,17.0,92,0.00,,,0.98,Wunderground v.1.15,2013-04-08 11:09:00,
2013-04-08 06:13:00,58.3,56.0,29.60,South,180,14.0,14.0,92,0.00,,,0.98,Wunderground v.1.15,2013-04-08 11:13:00,
2013-04-08 06:14:00,58.3,56.3,29.60,SSE,166,14.0,14.0,93,0.00,,,0.98,Wunderground v.1.15,2013-04-08 11:14:00,
2013-04-08 06:15:00,58.3,56.3,29.60,SSW,208,14.0,16.0,93,0.00,,,0.98,Wunderground v.1.15,2013-04-08 11:15:00,
2013-04-08 06:17:00,58.4,56.4,29.60,South,174,14.0,21.0,93,0.00,,,0.98,Wunderground v.1.15,2013-04-08 11:17:00,
2013-04-08 06:20:00,58.4,56.1,29.60,SSW,194,14.0,14.0,92,0.00,,,0.98,Wunderground v.1.15,2013-04-08 11:20:00,
2013-04-08 06:21:00,58.4,56.1,29.60,South,184,14.0,22.0,92,0.00,,,0.98,Wunderground v.1.15,2013-04-08 11:21:00,
2013-04-08 06:24:00,58.5,56.2,29.60,SSE,165,15.0,22.0,92,0.00,,,0.98,Wunderground v.1.15,2013-04-08 11:24:00,
2013-04-08 06:25:00,58.5,55.9,29.60,South,176,15.0,22.0,91,0.00,,,0.98,Wunderground v.1.15,2013-04-08 11:25:00,
2013-04-08 06:26:00,58.6,56.0,29.60,South,179,15.0,22.0,91,0.00,,,0.98,Wunderground v.1.15,2013-04-08 11:26:00,
2013-04-08 06:28:00,58.6,56.0,29.60,South,186,15.0,22.0,91,0.00,,,0.98,Wunderground v.1.15,2013-04-08 11:28:00,
2013-04-08 06:30:00,58.6,56.0,29.61,South,179,15.0,17.0,91,0.00,,,0.98,Wunderground v.1.15,2013-04-08 11:30:00,
2013-04-08 06:32:00,58.6,55.7,29.61,SSW,194,15.0,17.0,90,0.00,,,0.98,Wunderground v.1.15,2013-04-08 11:32:00,
2013-04-08 06:33:00,58.6,55.7,29.61,SSW,208,15.0,17.0,90,0.00,,,0.98,Wunderground v.1.15,2013-04-08 11:33:00,
2013-04-08 06:35:00,58.7,55.8,29.61,SSW,195,15.0,17.0,90,0.00,,,0.98,Wunderground v.1.15,2013-04-08 11:35:00,
2013-04-08 06:37:00,58.8,55.9,29.61,South,181,15.0,17.0,90,0.00,,,0.98,Wunderground v.1.15,2013-04-08 11:37:00,
2013-04-08 06:38:00,58.8,55.6,29.61,SSW,200,15.0,17.0,89,0.00,,,0.98,Wunderground v.1.15,2013-04-08 11:38:00,
2013-04-08 06:41:00,58.9,55.4,29.62,SSW,204,15.0,15.0,88,0.00,,,0.98,Wunderground v.1.15,2013-04-08 11:41:00,
2013-04-08 06:42:00,58.9,55.4,29.62,SW,224,15.0,15.0,88,0.00,,,0.98,Wunderground v.1.15,2013-04-08 11:42:00,
2013-04-08 06:43:00,58.9,55.4,29.62,SSW,212,15.0,18.0,88,0.00,,,0.98,Wunderground v.1.15,2013-04-08 11:43:00,
2013-04-08 06:45:00,59.0,55.1,29.62,South,177,15.0,18.0,87,0.00,,,0.98,Wunderground v.1.15,2013-04-08 11:45:00,
2013-04-08 06:48:00,59.2,55.0,29.63,SSW,207,15.0,20.0,86,0.00,,,0.98,Wunderground v.1.15,2013-04-08 11:48:00,
2013-04-08 06:49:00,59.2,55.0,29.63,SSW,194,15.0,20.0,86,0.00,,,0.98,Wunderground v.1.15,2013-04-08 11:49:00,
2013-04-08 06:51:00,59.2,55.0,29.63,SSW,205,15.0,15.0,86,0.00,,,0.98,Wunderground v.1.15,2013-04-08 11:51:00,
2013-04-08 06:53:00,59.2,55.0,29.63,SSW,203,15.0,21.0,86,0.00,,,0.98,Wunderground v.1.15,2013-04-08 11:53:00,
2013-04-08 06:54:00,59.3,55.1,29.63,SW,224,16.0,21.0,86,0.00,,,0.98,Wunderground v.1.15,2013-04-08 11:54:00,
2013-04-08 06:55:00,59.3,55.1,29.63,SW,221,16.0,21.0,86,0.00,,,0.98,Wunderground v.1.15,2013-04-08 11:55:00,
2013-04-08 06:56:00,59.2,55.0,29.64,SSW,212,16.0,21.0,86,0.00,,,0.98,Wunderground v.1.15,2013-04-08 11:56:00,
2013-04-08 06:59:00,59.2,55.0,29.64,SSW,204,16.0,21.0,86,0.00,,,0.99,Wunderground v.1.15,2013-04-08 11:59:00,
2013-04-08 07:00:00,59.1,54.9,29.64,SW,219,16.0,17.0,86,0.47,,,1.00,Wunderground v.1.15,2013-04-08 12:00:00,
2013-04-08 07:03:00,59.0,54.8,29.64,SSW,212,16.0,21.0,86,0.26,,,1.01,Wunderground v.1.15,2013-04-08 12:03:00,
2013-04-08 07:05:00,58.8,54.6,29.64,WSW,239,16.0,21.0,86,0.17,,,1.01,Wunderground v.1.15,2013-04-08 12:05:00,
2013-04-08 07:08:00,58.8,54.6,29.65,SSW,207,17.0,21.0,86,0.09,,,1.02,Wunderground v.1.15,2013-04-08 12:08:00,
2013-04-08 07:09:00,58.7,54.5,29.65,SW,232,17.0,26.0,86,0.09,,,1.02,Wunderground v.1.15,2013-04-08 12:09:00,
2013-04-08 07:10:00,58.6,54.4,29.65,SW,232,17.0,22.0,86,0.09,,,1.02,Wunderground v.1.15,2013-04-08 12:10:00,
2013-04-08 07:13:00,58.4,54.5,29.65,SW,228,18.0,22.0,87,0.09,,,1.02,Wunderground v.1.15,2013-04-08 12:13:00,
2013-04-08 07:16:00,58.2,54.3,29.66,SW,232,19.0,22.0,87,0.07,,,1.02,Wunderground v.1.15,2013-04-08 12:16:00,
2013-04-08 07:17:00,58.1,54.2,29.66,SW,231,18.0,22.0,87,0.07,,,1.02,Wunderground v.1.15,2013-04-08 12:17:00,
2013-04-08 07:18:00,58.1,54.2,29.66,SW,225,18.0,22.0,87,0.06,,,1.02,Wunderground v.1.15,2013-04-08 12:18:00,
2013-04-08 07:19:00,58.0,54.5,29.66,SW,231,18.0,22.0,88,0.05,,,1.02,Wunderground v.1.15,2013-04-08 12:19:00,
2013-04-08 07:23:00,57.8,54.3,29.67,WSW,240,16.0,18.0,88,0.04,,,1.02,Wunderground v.1.15,2013-04-08 12:23:00,
2013-04-08 07:25:00,57.8,54.0,29.67,SW,235,15.0,18.0,87,0.04,,,1.02,Wunderground v.1.15,2013-04-08 12:25:00,
2013-04-08 07:26:00,57.8,54.0,29.67,SW,231,16.0,18.0,87,0.00,,,1.02,Wunderground v.1.15,2013-04-08 12:26:00,
2013-04-08 07:29:00,57.8,54.0,29.67,WSW,245,16.0,23.0,87,0.00,,,1.02,Wunderground v.1.15,2013-04-08 12:29:00,
2013-04-08 07:30:00,57.8,54.0,29.67,WSW,243,16.0,16.0,87,0.00,,,1.02,Wunderground v.1.15,2013-04-08 12:30:00,
2013-04-08 07:32:00,57.8,53.6,29.67,SW,231,15.0,16.0,86,0.00,,,1.02,Wunderground v.1.15,2013-04-08 12:32:00,
2013-04-08 07:34:00,57.7,53.5,29.68,SW,232,15.0,18.0,86,0.00,,,1.02,Wunderground v.1.15,2013-04-08 12:34:00,
2013-04-08 07:35:00,57.7,53.9,29.68,SW,232,15.0,18.0,87,0.00,,,1.02,Wunderground v.1.15,2013-04-08 12:35:00,
2013-04-08 07:39:00,57.6,53.4,29.68,SW,235,14.0,18.0,86,0.00,,,1.02,Wunderground v.1.15,2013-04-08 12:39:00,
2013-04-08 07:40:00,57.5,53.7,29.68,WSW,245,14.0,14.0,87,0.00,,,1.02,Wunderground v.1.15,2013-04-08 12:40:00,
2013-04-08 07:41:00,57.5,53.3,29.68,WSW,243,14.0,17.0,86,0.00,,,1.02,Wunderground v.1.15,2013-04-08 12:41:00,
2013-04-08 07:45:00,57.4,53.2,29.68,West,264,15.0,17.0,86,0.00,,,1.02,Wunderground v.1.15,2013-04-08 12:45:00,
2013-04-08 07:47:00,57.4,53.2,29.69,SW,235,14.0,19.0,86,0.00,,,1.02,Wunderground v.1.15,2013-04-08 12:47:00,
2013-04-08 07:50:00,57.3,53.1,29.69,West,261,16.0,16.0,86,0.00,,,1.02,Wunderground v.1.15,2013-04-08 12:50:00,
2013-04-08 07:53:00,57.3,53.1,29.69,WSW,249,15.0,17.0,86,0.00,,,1.02,Wunderground v.1.15,2013-04-08 12:53:00,
2013-04-08 07:56:00,57.2,53.0,29.69,WSW,248,15.0,17.0,86,0.00,,,1.02,Wunderground v.1.15,2013-04-08 12:56:00,
2013-04-08 07:57:00,57.2,53.4,29.69,SW,233,15.0,17.0,87,0.00,,,1.02,Wunderground v.1.15,2013-04-08 12:57:00,
2013-04-08 07:58:00,57.1,53.3,29.70,SW,226,15.0,18.0,87,0.00,,,1.02,Wunderground v.1.15,2013-04-08 12:58:00,
2013-04-08 07:59:00,57.1,53.3,29.69,SW,220,14.0,18.0,87,0.00,,,1.02,Wunderground v.1.15,2013-04-08 12:59:00,
2013-04-08 08:03:00,57.1,53.3,29.69,SW,232,14.0,16.0,87,0.00,,,1.02,Wunderground v.1.15,2013-04-08 13:03:00,
2013-04-08 08:06:00,57.1,53.3,29.70,WSW,239,14.0,16.0,87,0.00,,,1.02,Wunderground v.1.15,2013-04-08 13:06:00,
2013-04-08 08:09:00,57.1,53.3,29.70,WSW,249,16.0,22.0,87,0.00,,,1.02,Wunderground v.1.15,2013-04-08 13:09:00,
2013-04-08 08:10:00,57.0,53.2,29.70,WSW,239,16.0,19.0,87,0.00,,,1.02,Wunderground v.1.15,2013-04-08 13:10:00,
2013-04-08 08:14:00,56.9,53.1,29.70,West,273,15.0,19.0,87,0.00,,,1.02,Wunderground v.1.15,2013-04-08 13:14:00,
2013-04-08 08:15:00,56.9,53.1,29.70,WSW,246,15.0,19.0,87,0.00,,,1.02,Wunderground v.1.15,2013-04-08 13:15:00,
2013-04-08 08:16:00,56.9,53.1,29.70,SW,233,15.0,19.0,87,0.00,,,1.02,Wunderground v.1.15,2013-04-08 13:16:00,
2013-04-08 08:19:00,56.9,53.1,29.70,WSW,238,14.0,19.0,87,0.00,,,1.02,Wunderground v.1.15,2013-04-08 13:19:00,
2013-04-08 08:23:00,56.9,53.4,29.70,SW,235,13.0,15.0,88,0.00,,,1.02,Wunderground v.1.15,2013-04-08 13:23:00,
2013-04-08 08:24:00,56.8,53.3,29.70,WSW,248,13.0,17.0,88,0.00,,,1.02,Wunderground v.1.15,2013-04-08 13:24:00,
2013-04-08 08:25:00,56.9,53.4,29.70,WSW,250,13.0,17.0,88,0.00,,,1.02,Wunderground v.1.15,2013-04-08 13:25:00,
2013-04-08 08:26:00,56.9,53.4,29.70,WSW,248,13.0,17.0,88,0.00,,,1.02,Wunderground v.1.15,2013-04-08 13:26:00,
2013-04-08 08:28:00,57.0,53.5,29.70,WSW,245,13.0,20.0,88,0.00,,,1.02,Wunderground v.1.15,2013-04-08 13:28:00,
2013-04-08 08:30:00,57.0,53.5,29.70,SW,235,13.0,13.0,88,0.00,,,1.02,Wunderground v.1.15,2013-04-08 13:30:00,
2013-04-08 08:32:00,57.0,53.5,29.70,WSW,246,14.0,16.0,88,0.00,,,1.02,Wunderground v.1.15,2013-04-08 13:32:00,
2013-04-08 08:33:00,57.1,53.6,29.70,WSW,252,14.0,16.0,88,0.00,,,1.02,Wunderground v.1.15,2013-04-08 13:33:00,
2013-04-08 08:35:00,57.1,53.6,29.70,West,262,14.0,16.0,88,0.00,,,1.02,Wunderground v.1.15,2013-04-08 13:35:00,
2013-04-08 08:37:00,57.1,53.6,29.70,WSW,238,14.0,16.0,88,0.00,,,1.02,Wunderground v.1.15,2013-04-08 13:37:00,
2013-04-08 08:38:00,57.1,53.6,29.70,SW,228,14.0,16.0,88,0.00,,,1.02,Wunderground v.1.15,2013-04-08 13:38:00,
2013-04-08 08:39:00,57.1,53.9,29.70,WSW,242,14.0,16.0,89,0.00,,,1.02,Wunderground v.1.15,2013-04-08 13:39:00,
2013-04-08 08:43:00,57.0,53.8,29.70,WSW,245,13.0,16.0,89,0.00,,,1.02,Wunderground v.1.15,2013-04-08 13:43:00,
2013-04-08 08:45:00,57.0,53.8,29.70,SW,232,13.0,16.0,89,0.00,,,1.02,Wunderground v.1.15,2013-04-08 13:45:00,
2013-04-08 08:47:00,57.0,53.8,29.70,West,262,14.0,17.0,89,0.00,,,1.02,Wunderground v.1.15,2013-04-08 13:47:00,
2013-04-08 08:49:00,57.1,53.9,29.70,SW,232,14.0,17.0,89,0.00,,,1.02,Wunderground v.1.15,2013-04-08 13:49:00,
2013-04-08 08:52:00,57.2,54.3,29.70,WSW,243,13.0,14.0,90,0.00,,,1.02,Wunderground v.1.15,2013-04-08 13:52:00,
2013-04-08 08:56:00,57.2,54.0,29.71,WSW,240,12.0,15.0,89,0.00,,,1.02,Wunderground v.1.15,2013-04-08 13:56:00,
2013-04-08 09:00:00,57.2,54.0,29.71,WSW,238,11.0,11.0,89,0.00,,,1.02,Wunderground v.1.15,2013-04-08 14:00:00,
2013-04-08 09:01:00,57.3,54.1,29.71,WSW,246,11.0,12.0,89,0.00,,,1.02,Wunderground v.1.15,2013-04-08 14:01:00,
2013-04-08 09:02:00,57.2,54.3,29.71,West,271,11.0,12.0,90,0.00,,,1.02,Wunderground v.1.15,2013-04-08 14:02:00,
2013-04-08 09:07:00,57.3,54.1,29.71,WSW,249,11.0,14.0,89,0.00,,,1.02,Wunderground v.1.15,2013-04-08 14:07:00,
2013-04-08 09:08:00,57.3,54.1,29.71,WSW,238,12.0,14.0,89,0.00,,,1.02,Wunderground v.1.15,2013-04-08 14:08:00,
2013-04-08 09:09:00,57.3,54.1,29.71,WSW,248,12.0,14.0,89,0.00,,,1.02,Wunderground v.1.15,2013-04-08 14:09:00,
2013-04-08 09:10:00,57.3,54.1,29.71,SW,226,12.0,13.0,89,0.00,,,1.02,Wunderground v.1.15,2013-04-08 14:10:00,
2013-04-08 09:13:00,57.4,54.5,29.71,SW,219,12.0,14.0,90,0.00,,,1.02,Wunderground v.1.15,2013-04-08 14:13:00,
2013-04-08 09:15:00,57.5,54.6,29.71,WSW,248,12.0,14.0,90,0.00,,,1.02,Wunderground v.1.15,2013-04-08 14:15:00,
2013-04-08 09:17:00,57.6,54.7,29.71,WSW,246,12.0,14.0,90,0.00,,,1.02,Wunderground v.1.15,2013-04-08 14:17:00,
2013-04-08 09:18:00,57.6,54.7,29.71,WSW,242,11.0,14.0,90,0.00,,,1.02,Wunderground v.1.15,2013-04-08 14:18:00,
2013-04-08 09:20:00,57.6,54.4,29.71,WSW,248,12.0,12.0,89,0.00,,,1.02,Wunderground v.1.15,2013-04-08 14:20:00,
2013-04-08 09:23:00,57.6,54.7,29.72,WSW,250,12.0,12.0,90,0.00,,,1.02,Wunderground v.1.15,2013-04-08 14:23:00,
2013-04-08 09:24:00,57.6,54.4,29.71,SW,235,11.0,14.0,89,0.00,,,1.02,Wunderground v.1.15,2013-04-08 14:24:00,
2013-04-08 09:26:00,57.6,54.4,29.71,SW,231,12.0,14.0,89,0.00,,,1.02,Wunderground v.1.15,2013-04-08 14:26:00,
2013-04-08 09:27:00,57.7,54.8,29.71,WSW,255,12.0,14.0,90,0.00,,,1.02,Wunderground v.1.15,2013-04-08 14:27:00,
2013-04-08 09:31:00,57.9,55.0,29.71,WSW,245,11.0,12.0,90,0.00,,,1.02,Wunderground v.1.15,2013-04-08 14:31:00,
2013-04-08 09:33:00,58.0,55.1,29.71,WSW,250,11.0,12.0,90,0.00,,,1.02,Wunderground v.1.15,2013-04-08 14:33:00,
2013-04-08 09:39:00,58.1,54.9,29.72,West,263,11.0,16.0,89,0.00,,,1.02,Wunderground v.1.15,2013-04-08 14:39:00,
2013-04-08 09:42:00,58.2,55.0,29.72,WSW,257,11.0,18.0,89,0.00,,,1.02,Wunderground v.1.15,2013-04-08 14:42:00,
2013-04-08 09:43:00,58.2,54.7,29.72,West,266,11.0,18.0,88,0.00,,,1.02,Wunderground v.1.15,2013-04-08 14:43:00,
2013-04-08 09:44:00,58.2,54.7,29.72,West,271,12.0,18.0,88,0.00,,,1.02,Wunderground v.1.15,2013-04-08 14:44:00,
2013-04-08 09:45:00,58.2,54.3,29.72,West,263,11.0,18.0,87,0.00,,,1.02,Wunderground v.1.15,2013-04-08 14:45:00,
2013-04-08 09:48:00,58.6,55.7,29.72,West,267,11.0,18.0,90,0.00,,,1.02,Wunderground v.1.15,2013-04-08 14:48:00,
2013-04-08 09:50:00,58.7,55.5,29.72,WSW,242,11.0,11.0,89,0.00,,,1.02,Wunderground v.1.15,2013-04-08 14:50:00,
2013-04-08 09:53:00,58.9,55.7,29.72,WSW,256,11.0,11.0,89,0.00,,,1.02,Wunderground v.1.15,2013-04-08 14:53:00,
2013-04-08 09:55:00,59.0,55.8,29.72,WSW,248,11.0,11.0,89,0.00,,,1.02,Wunderground v.1.15,2013-04-08 14:55:00,
2013-04-08 09:56:00,59.1,55.5,29.72,WSW,256,10.0,13.0,88,0.00,,,1.02,Wunderground v.1.15,2013-04-08 14:56:00,
2013-04-08 10:01:00,59.3,55.4,29.73,WSW,245,11.0,13.0,87,0.00,,,1.02,Wunderground v.1.15,2013-04-08 15:01:00,
2013-04-08 10:02:00,59.3,55.1,29.73,West,262,11.0,13.0,86,0.00,,,1.02,Wunderground v.1.15,2013-04-08 15:02:00,
2013-04-08 10:03:00,59.3,55.4,29.73,West,260,11.0,13.0,87,0.00,,,1.02,Wunderground v.1.15,2013-04-08 15:03:00,
2013-04-08 10:05:00,59.5,55.9,29.73,WSW,256,11.0,13.0,88,0.00,,,1.02,Wunderground v.1.15,2013-04-08 15:05:00,
2013-04-08 10:06:00,59.5,55.6,29.73,West,264,11.0,13.0,87,0.00,,,1.02,Wunderground v.1.15,2013-04-08 15:06:00,
2013-04-08 10:08:00,59.7,56.1,29.74,WSW,239,11.0,13.0,88,0.00,,,1.02,Wunderground v.1.15,2013-04-08 15:08:00,
2013-04-08 10:09:00,59.8,56.6,29.74,West,264,11.0,13.0,89,0.00,,,1.02,Wunderground v.1.15,2013-04-08 15:09:00,
2013-04-08 10:10:00,59.9,56.0,29.74,WNW,297,10.0,11.0,87,0.00,,,1.02,Wunderground v.1.15,2013-04-08 15:10:00,
2013-04-08 10:11:00,59.9,56.0,29.74,WSW,257,10.0,14.0,87,0.00,,,1.02,Wunderground v.1.15,2013-04-08 15:11:00,
2013-04-08 10:14:00,60.1,55.9,29.74,WNW,294,10.0,14.0,86,0.00,,,1.02,Wunderground v.1.15,2013-04-08 15:14:00,
2013-04-08 10:17:00,60.4,56.5,29.74,WSW,246,9.0,15.0,87,0.00,,,1.02,Wunderground v.1.15,2013-04-08 15:17:00,
2013-04-08 10:20:00,60.6,56.4,29.74,West,267,10.0,15.0,86,0.00,,,1.02,Wunderground v.1.15,2013-04-08 15:20:00,
2013-04-08 10:23:00,60.7,56.5,29.74,WSW,245,11.0,18.0,86,0.00,,,1.02,Wunderground v.1.15,2013-04-08 15:23:00,
2013-04-08 10:24:00,60.7,56.5,29.74,West,260,11.0,18.0,86,0.00,,,1.02,Wunderground v.1.15,2013-04-08 15:24:00,
2013-04-08 10:26:00,60.7,55.5,29.74,West,267,13.0,18.0,83,0.00,,,1.02,Wunderground v.1.15,2013-04-08 15:26:00,
2013-04-08 10:31:00,61.1,56.9,29.74,West,270,13.0,14.0,86,0.00,,,1.02,Wunderground v.1.15,2013-04-08 15:31:00,
2013-04-08 10:32:00,61.2,57.0,29.75,West,262,12.0,14.0,86,0.00,,,1.02,Wunderground v.1.15,2013-04-08 15:32:00,
2013-04-08 10:35:00,61.5,56.9,29.75,West,262,11.0,14.0,85,0.00,,,1.02,Wunderground v.1.15,2013-04-08 15:35:00,
2013-04-08 10:36:00,61.5,56.6,29.75,WSW,250,10.0,14.0,84,0.00,,,1.02,Wunderground v.1.15,2013-04-08 15:36:00,
2013-04-08 10:37:00,61.5,56.6,29.74,West,259,10.0,14.0,84,0.00,,,1.02,Wunderground v.1.15,2013-04-08 15:37:00,
2013-04-08 10:41:00,61.6,56.0,29.75,West,263,11.0,17.0,82,0.00,,,1.02,Wunderground v.1.15,2013-04-08 15:41:00,
2013-04-08 10:42:00,61.6,55.7,29.75,West,266,11.0,17.0,81,0.00,,,1.02,Wunderground v.1.15,2013-04-08 15:42:00,
2013-04-08 10:44:00,61.8,56.6,29.75,West,260,12.0,17.0,83,0.00,,,1.02,Wunderground v.1.15,2013-04-08 15:44:00,
2013-04-08 10:47:00,62.1,56.9,29.75,West,266,13.0,17.0,83,0.00,,,1.02,Wunderground v.1.15,2013-04-08 15:47:00,
2013-04-08 10:49:00,62.3,56.4,29.75,WNW,285,12.0,17.0,81,0.00,,,1.02,Wunderground v.1.15,2013-04-08 15:49:00,
2013-04-08 10:50:00,62.4,57.2,29.75,West,273,12.0,15.0,83,0.00,,,1.02,Wunderground v.1.15,2013-04-08 15:50:00,
2013-04-08 10:53:00,62.5,56.6,29.75,WSW,242,12.0,17.0,81,0.00,,,1.02,Wunderground v.1.15,2013-04-08 15:53:00,
2013-04-08 10:54:00,62.4,55.4,29.75,WSW,246,12.0,17.0,78,0.00,,,1.02,Wunderground v.1.15,2013-04-08 15:54:00,
2013-04-08 10:58:00,62.8,57.2,29.75,WSW,238,12.0,17.0,82,0.00,,,1.02,Wunderground v.1.15,2013-04-08 15:58:00,
2013-04-08 11:00:00,62.9,57.3,29.75,WSW,257,12.0,12.0,82,0.00,,,1.02,Wunderground v.1.15,2013-04-08 16:00:00,
2013-04-08 11:04:00,62.9,57.0,29.75,West,262,11.0,12.0,81,0.00,,,1.02,Wunderground v.1.15,2013-04-08 16:04:00,
2013-04-08 11:05:00,63.0,57.8,29.75,SW,219,10.0,12.0,83,0.00,,,1.02,Wunderground v.1.15,2013-04-08 16:05:00,
2013-04-08 11:07:00,63.0,57.4,29.75,SW,225,10.0,12.0,82,0.00,,,1.02,Wunderground v.1.15,2013-04-08 16:07:00,
2013-04-08 11:11:00,63.2,57.3,29.75,WSW,240,11.0,11.0,81,0.00,,,1.02,Wunderground v.1.15,2013-04-08 16:11:00,
2013-04-08 11:12:00,63.3,57.7,29.75,WSW,249,11.0,11.0,82,0.00,,,1.02,Wunderground v.1.15,2013-04-08 16:12:00,
2013-04-08 11:14:00,63.5,57.6,29.75,WSW,239,10.0,11.0,81,0.00,,,1.02,Wunderground v.1.15,2013-04-08 16:14:00,
2013-04-08 11:15:00,63.6,58.3,29.75,WSW,253,11.0,11.0,83,0.00,,,1.02,Wunderground v.1.15,2013-04-08 16:15:00,
2013-04-08 11:17:00,63.6,57.3,29.75,West,262,11.0,12.0,80,0.00,,,1.02,Wunderground v.1.15,2013-04-08 16:17:00,
2013-04-08 11:19:00,63.4,56.8,29.75,WSW,240,11.0,13.0,79,0.00,,,1.02,Wunderground v.1.15,2013-04-08 16:19:00,
2013-04-08 11:20:00,63.4,57.1,29.75,WSW,255,11.0,11.0,80,0.00,,,1.02,Wunderground v.1.15,2013-04-08 16:20:00,
2013-04-08 11:21:00,63.5,57.6,29.75,WSW,250,10.0,11.0,81,0.00,,,1.02,Wunderground v.1.15,2013-04-08 16:21:00,
2013-04-08 11:24:00,63.5,57.6,29.75,WSW,238,11.0,14.0,81,0.00,,,1.02,Wunderground v.1.15,2013-04-08 16:24:00,
2013-04-08 11:25:00,63.6,58.0,29.75,WSW,248,11.0,14.0,82,0.00,,,1.02,Wunderground v.1.15,2013-04-08 16:25:00,
2013-04-08 11:26:00,63.6,57.0,29.75,West,260,11.0,14.0,79,0.00,,,1.02,Wunderground v.1.15,2013-04-08 16:26:00,
2013-04-08 11:27:00,63.6,57.3,29.75,West,262,10.0,14.0,80,0.00,,,1.02,Wunderground v.1.15,2013-04-08 16:27:00,
2013-04-08 11:32:00,64.2,57.9,29.75,West,266,10.0,15.0,80,0.00,,,1.02,Wunderground v.1.15,2013-04-08 16:32:00,
2013-04-08 11:36:00,64.3,57.3,29.75,WSW,248,11.0,15.0,78,0.00,,,1.02,Wunderground v.1.15,2013-04-08 16:36:00,
2013-04-08 11:39:00,64.1,57.5,29.75,WSW,245,11.0,15.0,79,0.00,,,1.02,Wunderground v.1.15,2013-04-08 16:39:00,
2013-04-08 11:41:00,64.2,57.9,29.75,WSW,248,11.0,12.0,80,0.00,,,1.02,Wunderground v.1.15,2013-04-08 16:41:00,
2013-04-08 11:42:00,64.3,57.6,29.75,WSW,255,11.0,14.0,79,0.00,,,1.02,Wunderground v.1.15,2013-04-08 16:42:00,
2013-04-08 11:45:00,64.5,57.5,29.75,West,273,10.0,14.0,78,0.00,,,1.02,Wunderground v.1.15,2013-04-08 16:45:00,
2013-04-08 11:47:00,64.5,57.5,29.75,West,260,10.0,14.0,78,0.00,,,1.02,Wunderground v.1.15,2013-04-08 16:47:00,
2013-04-08 11:48:00,64.6,57.6,29.75,West,269,10.0,14.0,78,0.00,,,1.02,Wunderground v.1.15,2013-04-08 16:48:00,
2013-04-08 11:52:00,64.8,57.4,29.75,WSW,252,9.0,14.0,77,0.00,,,1.02,Wunderground v.1.15,2013-04-08 16:52:00,
2013-04-08 11:55:00,64.7,56.6,29.75,WSW,243,9.0,14.0,75,0.00,,,1.02,Wunderground v.1.15,2013-04-08 16:55:00,
2013-04-08 11:57:00,64.7,57.7,29.75,WSW,248,9.0,14.0,78,0.00,,,1.02,Wunderground v.1.15,2013-04-08 16:57:00,
2013-04-08 11:59:00,64.9,56.8,29.75,West,263,9.0,14.0,75,0.00,,,1.02,Wunderground v.1.15,2013-04-08 16:59:00,
2013-04-08 12:01:00,64.7,56.2,29.75,WSW,246,9.0,9.0,74,0.00,,,1.02,Wunderground v.1.15,2013-04-08 17:01:00,
2013-04-08 12:02:00,64.7,56.2,29.75,WSW,252,9.0,11.0,74,0.00,,,1.02,Wunderground v.1.15,2013-04-08 17:02:00,
2013-04-08 12:04:00,64.7,56.6,29.75,WSW,257,9.0,11.0,75,0.00,,,1.02,Wunderground v.1.15,2013-04-08 17:04:00,
2013-04-08 12:06:00,64.7,58.0,29.75,WSW,256,9.0,11.0,79,0.00,,,1.02,Wunderground v.1.15,2013-04-08 17:06:00,
2013-04-08 12:08:00,64.9,57.2,29.75,WSW,252,9.0,11.0,76,0.00,,,1.02,Wunderground v.1.15,2013-04-08 17:08:00,
2013-04-08 12:11:00,65.0,57.2,29.76,WSW,257,9.0,10.0,76,0.00,,,1.02,Wunderground v.1.15,2013-04-08 17:11:00,
2013-04-08 12:12:00,65.1,57.3,29.76,West,259,9.0,10.0,76,0.00,,,1.02,Wunderground v.1.15,2013-04-08 17:12:00,
2013-04-08 12:15:00,65.1,57.3,29.76,West,259,8.0,11.0,76,0.00,,,1.02,Wunderground v.1.15,2013-04-08 17:15:00,
2013-04-08 12:17:00,65.1,57.7,29.76,West,271,9.0,11.0,77,0.00,,,1.02,Wunderground v.1.15,2013-04-08 17:17:00,
2013-04-08 12:18:00,65.1,57.0,29.76,West,262,9.0,11.0,75,0.00,,,1.02,Wunderground v.1.15,2013-04-08 17:18:00,
2013-04-08 12:22:00,65.2,57.8,29.75,WSW,255,8.0,8.0,77,0.00,,,1.02,Wunderground v.1.15,2013-04-08 17:22:00,
2013-04-08 12:24:00,65.3,57.9,29.75,WNW,291,9.0,10.0,77,0.00,,,1.02,Wunderground v.1.15,2013-04-08 17:24:00,
2013-04-08 12:25:00,65.3,57.2,29.76,West,274,8.0,10.0,75,0.00,,,1.02,Wunderground v.1.15,2013-04-08 17:25:00,
2013-04-08 12:27:00,65.4,57.6,29.76,SW,235,7.0,10.0,76,0.00,,,1.02,Wunderground v.1.15,2013-04-08 17:27:00,
2013-04-08 12:28:00,65.5,57.4,29.75,West,259,7.0,10.0,75,0.00,,,1.02,Wunderground v.1.15,2013-04-08 17:28:00,
2013-04-08 12:33:00,65.8,57.7,29.75,WSW,239,7.0,9.0,75,0.00,,,1.02,Wunderground v.1.15,2013-04-08 17:33:00,
2013-04-08 12:34:00,65.9,57.7,29.75,WSW,256,7.0,9.0,75,0.00,,,1.02,Wunderground v.1.15,2013-04-08 17:34:00,
2013-04-08 12:35:00,65.9,57.0,29.75,West,259,7.0,9.0,73,0.00,,,1.02,Wunderground v.1.15,2013-04-08 17:35:00,
2013-04-08 12:38:00,66.0,57.5,29.75,West,260,8.0,14.0,74,0.00,,,1.02,Wunderground v.1.15,2013-04-08 17:38:00,
2013-04-08 12:40:00,65.9,57.4,29.75,West,266,9.0,9.0,74,0.00,,,1.02,Wunderground v.1.15,2013-04-08 17:40:00,
2013-04-08 12:43:00,65.8,57.3,29.75,WNW,292,9.0,11.0,74,0.00,,,1.02,Wunderground v.1.15,2013-04-08 17:43:00,
2013-04-08 12:46:00,65.9,57.7,29.75,WSW,252,9.0,11.0,75,0.00,,,1.02,Wunderground v.1.15,2013-04-08 17:46:00,
2013-04-08 12:47:00,66.0,58.6,29.75,WSW,246,8.0,12.0,77,0.00,,,1.02,Wunderground v.1.15,2013-04-08 17:47:00,
2013-04-08 12:48:00,65.9,58.5,29.75,SW,232,8.0,12.0,77,0.00,,,1.02,Wunderground v.1.15,2013-04-08 17:48:00,
2013-04-08 12:49:00,65.9,57.0,29.75,WSW,243,9.0,12.0,73,0.00,,,1.02,Wunderground v.1.15,2013-04-08 17:49:00,
2013-04-08 12:54:00,66.1,57.6,29.75,West,259,8.0,11.0,74,0.00,,,1.02,Wunderground v.1.15,2013-04-08 17:54:00,
2013-04-08 12:56:00,66.2,56.5,29.75,NW,307,9.0,11.0,71,0.00,,,1.02,Wunderground v.1.15,2013-04-08 17:56:00,
2013-04-08 12:57:00,66.4,57.9,29.75,WNW,285,8.0,11.0,74,0.00,,,1.02,Wunderground v.1.15,2013-04-08 17:57:00,
2013-04-08 13:00:00,66.7,58.1,29.75,WSW,250,8.0,12.0,74,0.00,,,1.02,Wunderground v.1.15,2013-04-08 18:00:00,
2013-04-08 13:03:00,66.7,57.8,29.75,WSW,240,8.0,12.0,73,0.00,,,1.02,Wunderground v.1.15,2013-04-08 18:03:00,
2013-04-08 13:04:00,66.6,58.1,29.75,WSW,252,9.0,12.0,74,0.00,,,1.02,Wunderground v.1.15,2013-04-08 18:04:00,
2013-04-08 13:07:00,66.7,57.4,29.75,West,266,9.0,12.0,72,0.00,,,1.02,Wunderground v.1.15,2013-04-08 18:07:00,
2013-04-08 13:08:00,66.7,57.8,29.75,SW,231,9.0,12.0,73,0.00,,,1.02,Wunderground v.1.15,2013-04-08 18:08:00,
2013-04-08 13:09:00,66.8,57.9,29.75,WSW,250,9.0,12.0,73,0.00,,,1.02,Wunderground v.1.15,2013-04-08 18:09:00,
2013-04-08 13:11:00,67.2,58.2,29.75,WSW,255,8.0,9.0,73,0.00,,,1.02,Wunderground v.1.15,2013-04-08 18:11:00,
2013-04-08 13:14:00,67.6,59.4,29.75,WSW,255,7.0,9.0,75,0.00,,,1.02,Wunderground v.1.15,2013-04-08 18:14:00,
2013-04-08 13:15:00,67.7,59.1,29.76,West,264,7.0,9.0,74,0.00,,,1.02,Wunderground v.1.15,2013-04-08 18:15:00,
2013-04-08 13:17:00,67.8,57.7,29.75,WNW,288,6.0,9.0,70,0.00,,,1.02,Wunderground v.1.15,2013-04-08 18:17:00,
2013-04-08 13:18:00,67.9,58.1,29.76,WSW,248,6.0,9.0,71,0.00,,,1.02,Wunderground v.1.15,2013-04-08 18:18:00,
2013-04-08 13:21:00,68.1,58.3,29.76,West,260,6.0,9.0,71,0.00,,,1.02,Wunderground v.1.15,2013-04-08 18:21:00,
2013-04-08 13:23:00,68.1,57.9,29.76,SW,236,7.0,12.0,70,0.00,,,1.02,Wunderground v.1.15,2013-04-08 18:23:00,
2013-04-08 13:26:00,67.8,56.9,29.76,WSW,238,8.0,12.0,68,0.00,,,1.02,Wunderground v.1.15,2013-04-08 18:26:00,
2013-04-08 13:27:00,67.7,57.6,29.76,SW,222,9.0,12.0,70,0.00,,,1.02,Wunderground v.1.15,2013-04-08 18:27:00,
2013-04-08 13:30:00,67.7,58.3,29.75,SW,224,10.0,12.0,72,0.00,,,1.02,Wunderground v.1.15,2013-04-08 18:30:00,
2013-04-08 13:32:00,67.8,58.8,29.75,WSW,238,10.0,12.0,73,0.00,,,1.02,Wunderground v.1.15,2013-04-08 18:32:00,
2013-04-08 13:35:00,67.8,57.7,29.75,SW,219,10.0,12.0,70,0.00,,,1.02,Wunderground v.1.15,2013-04-08 18:35:00,
2013-04-08 13:37:00,67.8,57.3,29.75,SW,231,10.0,12.0,69,0.00,,,1.02,Wunderground v.1.15,2013-04-08 18:37:00,
2013-04-08 13:39:00,68.0,57.8,29.76,West,266,10.0,13.0,70,0.00,,,1.02,Wunderground v.1.15,2013-04-08 18:39:00,
2013-04-08 13:40:00,68.1,57.1,29.75,WSW,252,9.0,9.0,68,0.00,,,1.02,Wunderground v.1.15,2013-04-08 18:40:00,
2013-04-08 13:42:00,68.4,58.6,29.76,WSW,245,8.0,11.0,71,0.00,,,1.02,Wunderground v.1.15,2013-04-08 18:42:00,
2013-04-08 13:43:00,68.5,57.1,29.76,WSW,246,8.0,11.0,67,0.00,,,1.02,Wunderground v.1.15,2013-04-08 18:43:00,
2013-04-08 13:46:00,68.5,57.1,29.76,SW,217,8.0,11.0,67,0.00,,,1.02,Wunderground v.1.15,2013-04-08 18:46:00,
2013-04-08 13:48:00,68.6,57.2,29.76,SW,232,8.0,11.0,67,0.00,,,1.02,Wunderground v.1.15,2013-04-08 18:48:00,
2013-04-08 13:52:00,68.4,57.0,29.75,WNW,289,8.0,10.0,67,0.00,,,1.02,Wunderground v.1.15,2013-04-08 18:52:00,
2013-04-08 13:53:00,68.5,57.1,29.75,WSW,252,8.0,10.0,67,0.00,,,1.02,Wunderground v.1.15,2013-04-08 18:53:00,
2013-04-08 13:54:00,68.5,56.7,29.75,WSW,245,8.0,10.0,66,0.00,,,1.02,Wunderground v.1.15,2013-04-08 18:54:00,
2013-04-08 13:57:00,68.8,58.6,29.75,WSW,238,8.0,10.0,70,0.00,,,1.02,Wunderground v.1.15,2013-04-08 18:57:00,
2013-04-08 13:58:00,68.8,57.4,29.75,WSW,257,7.0,12.0,67,0.00,,,1.02,Wunderground v.1.15,2013-04-08 18:58:00,
2013-04-08 14:00:00,68.8,56.6,29.75,WSW,245,8.0,10.0,65,0.00,,,1.02,Wunderground v.1.15,2013-04-08 19:00:00,
2013-04-08 14:02:00,68.8,56.6,29.75,WSW,252,8.0,12.0,65,0.00,,,1.02,Wunderground v.1.15,2013-04-08 19:02:00,
2013-04-08 14:06:00,68.8,57.0,29.75,West,266,9.0,12.0,66,0.00,,,1.02,Wunderground v.1.15,2013-04-08 19:06:00,
2013-04-08 14:08:00,69.1,56.0,29.75,West,262,8.0,12.0,63,0.00,,,1.02,Wunderground v.1.15,2013-04-08 19:08:00,
2013-04-08 14:10:00,69.2,57.4,29.75,SW,217,8.0,8.0,66,0.00,,,1.02,Wunderground v.1.15,2013-04-08 19:10:00,
2013-04-08 14:11:00,69.3,57.9,29.75,WSW,248,8.0,8.0,67,0.00,,,1.02,Wunderground v.1.15,2013-04-08 19:11:00,
2013-04-08 14:13:00,69.3,56.6,29.75,West,273,8.0,12.0,64,0.00,,,1.02,Wunderground v.1.15,2013-04-08 19:13:00,
2013-04-08 14:14:00,69.3,56.6,29.75,SW,219,8.0,12.0,64,0.00,,,1.02,Wunderground v.1.15,2013-04-08 19:14:00,
2013-04-08 14:20:00,69.4,55.4,29.75,WSW,252,9.0,9.0,61,0.00,,,1.02,Wunderground v.1.15,2013-04-08 19:20:00,
2013-04-08 14:21:00,69.5,56.8,29.75,WSW,252,9.0,9.0,64,0.00,,,1.02,Wunderground v.1.15,2013-04-08 19:21:00,
2013-04-08 14:22:00,69.6,57.3,29.75,WSW,252,9.0,9.0,65,0.00,,,1.02,Wunderground v.1.15,2013-04-08 19:22:00,
2013-04-08 14:25:00,69.7,59.5,29.75,SSW,200,8.0,9.0,70,0.00,,,1.02,Wunderground v.1.15,2013-04-08 19:25:00,
2013-04-08 14:28:00,69.8,58.8,29.75,SSW,208,7.0,9.0,68,0.00,,,1.02,Wunderground v.1.15,2013-04-08 19:28:00,
2013-04-08 14:30:00,70.1,59.0,29.75,SW,233,7.0,8.0,68,0.00,,,1.02,Wunderground v.1.15,2013-04-08 19:30:00,
2013-04-08 14:32:00,70.0,57.3,29.75,SW,224,8.0,10.0,64,0.00,,,1.02,Wunderground v.1.15,2013-04-08 19:32:00,
2013-04-08 14:34:00,69.9,56.3,29.75,WSW,238,9.0,10.0,62,0.00,,,1.02,Wunderground v.1.15,2013-04-08 19:34:00,
2013-04-08 14:35:00,69.8,57.5,29.75,SW,214,9.0,10.0,65,0.00,,,1.02,Wunderground v.1.15,2013-04-08 19:35:00,
2013-04-08 14:40:00,69.8,57.5,29.75,SW,216,10.0,10.0,65,0.00,,,1.02,Wunderground v.1.15,2013-04-08 19:40:00,
2013-04-08 14:41:00,69.8,57.5,29.75,SSW,212,9.0,10.0,65,0.00,,,1.02,Wunderground v.1.15,2013-04-08 19:41:00,
2013-04-08 14:42:00,69.9,59.3,29.75,WSW,248,9.0,10.0,69,0.00,,,1.02,Wunderground v.1.15,2013-04-08 19:42:00,
2013-04-08 14:46:00,70.2,56.6,29.75,SW,222,8.0,10.0,62,0.00,,,1.02,Wunderground v.1.15,2013-04-08 19:46:00,
2013-04-08 14:47:00,70.2,56.6,29.75,SSW,203,7.0,10.0,62,0.00,,,1.02,Wunderground v.1.15,2013-04-08 19:47:00,
2013-04-08 14:48:00,70.3,58.0,29.75,SW,233,7.0,13.0,65,0.00,,,1.02,Wunderground v.1.15,2013-04-08 19:48:00,
2013-04-08 14:50:00,70.3,57.5,29.75,WSW,249,8.0,10.0,64,0.00,,,1.02,Wunderground v.1.15,2013-04-08 19:50:00,
2013-04-08 14:54:00,70.5,59.8,29.75,WSW,253,9.0,11.0,69,0.00,,,1.02,Wunderground v.1.15,2013-04-08 19:54:00,
2013-04-08 14:56:00,70.3,57.1,29.75,WSW,246,9.0,11.0,63,0.00,,,1.02,Wunderground v.1.15,2013-04-08 19:56:00,
2013-04-08 14:59:00,70.3,58.0,29.75,West,264,8.0,11.0,65,0.00,,,1.02,Wunderground v.1.15,2013-04-08 19:59:00,
2013-04-08 15:01:00,70.5,59.4,29.75,SW,225,8.0,9.0,68,0.00,,,1.02,Wunderground v.1.15,2013-04-08 20:01:00,
2013-04-08 15:02:00,70.5,58.6,29.75,WSW,242,8.0,13.0,66,0.00,,,1.02,Wunderground v.1.15,2013-04-08 20:02:00,
2013-04-08 15:06:00,70.7,58.8,29.75,SW,225,7.0,13.0,66,0.00,,,1.02,Wunderground v.1.15,2013-04-08 20:06:00,
2013-04-08 15:08:00,70.7,57.9,29.75,SW,225,8.0,15.0,64,0.00,,,1.02,Wunderground v.1.15,2013-04-08 20:08:00,
2013-04-08 15:10:00,70.7,57.9,29.75,SW,225,9.0,10.0,64,0.00,,,1.02,Wunderground v.1.15,2013-04-08 20:10:00,
2013-04-08 15:12:00,70.7,59.6,29.75,SSW,210,9.0,10.0,68,0.00,,,1.02,Wunderground v.1.15,2013-04-08 20:12:00,
2013-04-08 15:16:00,70.7,58.8,29.75,WSW,255,9.0,10.0,66,0.00,,,1.02,Wunderground v.1.15,2013-04-08 20:16:00,
2013-04-08 15:17:00,70.8,58.0,29.76,West,266,9.0,13.0,64,0.00,,,1.02,Wunderground v.1.15,2013-04-08 20:17:00,
2013-04-08 15:18:00,70.7,57.0,29.76,WNW,291,9.0,13.0,62,0.00,,,1.02,Wunderground v.1.15,2013-04-08 20:18:00,
2013-04-08 15:22:00,70.9,59.0,29.75,SSW,210,6.0,7.0,66,0.00,,,1.02,Wunderground v.1.15,2013-04-08 20:22:00,
2013-04-08 15:23:00,70.9,59.0,29.75,SW,219,6.0,7.0,66,0.00,,,1.02,Wunderground v.1.15,2013-04-08 20:23:00,
2013-04-08 15:24:00,71.0,58.2,29.75,WSW,250,6.0,7.0,64,0.00,,,1.02,Wunderground v.1.15,2013-04-08 20:24:00,
2013-04-08 15:28:00,70.9,57.2,29.75,WNW,302,5.0,13.0,62,0.00,,,1.02,Wunderground v.1.15,2013-04-08 20:28:00,
2013-04-08 15:29:00,71.0,57.8,29.75,West,259,5.0,13.0,63,0.00,,,1.02,Wunderground v.1.15,2013-04-08 20:29:00,
2013-04-08 15:33:00,71.4,57.2,29.75,WSW,255,4.0,6.0,61,0.00,,,1.02,Wunderground v.1.15,2013-04-08 20:33:00,
2013-04-08 15:34:00,71.4,59.0,29.75,West,266,4.0,6.0,65,0.00,,,1.02,Wunderground v.1.15,2013-04-08 20:34:00,
2013-04-08 15:37:00,71.7,58.9,29.75,WSW,255,3.0,7.0,64,0.00,,,1.02,Wunderground v.1.15,2013-04-08 20:37:00,
2013-04-08 15:42:00,71.8,59.0,29.75,WSW,257,5.0,13.0,64,0.00,,,1.02,Wunderground v.1.15,2013-04-08 20:42:00,
2013-04-08 15:43:00,71.8,59.4,29.75,WSW,242,6.0,13.0,65,0.00,,,1.02,Wunderground v.1.15,2013-04-08 20:43:00,
2013-04-08 15:50:00,71.7,58.4,29.76,SSW,207,8.0,8.0,63,0.00,,,1.02,Wunderground v.1.15,2013-04-08 20:50:00,
2013-04-08 15:51:00,71.7,58.9,29.75,South,191,7.0,8.0,64,0.00,,,1.02,Wunderground v.1.15,2013-04-08 20:51:00,
2013-04-08 15:52:00,71.7,59.3,29.75,SSW,194,7.0,8.0,65,0.00,,,1.02,Wunderground v.1.15,2013-04-08 20:52:00,
2013-04-08 15:53:00,71.7,58.4,29.75,South,190,6.0,8.0,63,0.00,,,1.02,Wunderground v.1.15,2013-04-08 20:53:00,
2013-04-08 15:57:00,71.8,58.5,29.76,SSW,210,6.0,14.0,63,0.00,,,1.02,Wunderground v.1.15,2013-04-08 20:57:00,
2013-04-08 16:00:00,71.8,60.2,29.76,SSW,205,6.0,6.0,67,0.00,,,1.02,Wunderground v.1.15,2013-04-08 21:00:00,
2013-04-08 16:01:00,71.9,59.9,29.76,SW,217,6.0,12.0,66,0.00,,,1.02,Wunderground v.1.15,2013-04-08 21:01:00,
2013-04-08 16:03:00,71.9,59.1,29.76,SW,216,7.0,12.0,64,0.00,,,1.02,Wunderground v.1.15,2013-04-08 21:03:00,
2013-04-08 16:08:00,71.9,58.6,29.76,WSW,250,7.0,12.0,63,0.00,,,1.02,Wunderground v.1.15,2013-04-08 21:08:00,
2013-04-08 16:10:00,72.0,58.7,29.76,West,273,7.0,7.0,63,0.00,,,1.02,Wunderground v.1.15,2013-04-08 21:10:00,
2013-04-08 16:11:00,72.0,59.6,29.76,WSW,257,6.0,10.0,65,0.00,,,1.02,Wunderground v.1.15,2013-04-08 21:11:00,
2013-04-08 16:13:00,72.2,58.5,29.76,West,260,6.0,10.0,62,0.00,,,1.02,Wunderground v.1.15,2013-04-08 21:13:00,
2013-04-08 16:15:00,72.0,58.7,29.76,West,267,6.0,10.0,63,0.00,,,1.02,Wunderground v.1.15,2013-04-08 21:15:00,
2013-04-08 16:17:00,71.9,58.2,29.77,WSW,245,6.0,10.0,62,0.00,,,1.02,Wunderground v.1.15,2013-04-08 21:17:00,
2013-04-08 16:21:00,71.8,58.5,29.76,WSW,248,8.0,9.0,63,0.00,,,1.02,Wunderground v.1.15,2013-04-08 21:21:00,
2013-04-08 16:22:00,71.7,59.3,29.76,WSW,243,8.0,9.0,65,0.00,,,1.02,Wunderground v.1.15,2013-04-08 21:22:00,
2013-04-08 16:24:00,71.5,57.3,29.76,West,262,8.0,9.0,61,0.00,,,1.02,Wunderground v.1.15,2013-04-08 21:24:00,
2013-04-08 16:26:00,71.5,58.2,29.77,WSW,245,7.0,11.0,63,0.00,,,1.02,Wunderground v.1.15,2013-04-08 21:26:00,
2013-04-08 16:27:00,71.5,58.7,29.76,SW,224,6.0,11.0,64,0.00,,,1.02,Wunderground v.1.15,2013-04-08 21:27:00,
2013-04-08 16:28:00,71.6,59.6,29.77,SW,218,6.0,11.0,66,0.00,,,1.02,Wunderground v.1.15,2013-04-08 21:28:00,
2013-04-08 16:30:00,71.5,58.7,29.77,SW,225,7.0,9.0,64,0.00,,,1.02,Wunderground v.1.15,2013-04-08 21:30:00,
2013-04-08 16:33:00,71.1,58.3,29.77,SW,225,7.0,10.0,64,0.00,,,1.02,Wunderground v.1.15,2013-04-08 21:33:00,
2013-04-08 16:34:00,71.1,59.2,29.76,SW,226,7.0,10.0,66,0.00,,,1.02,Wunderground v.1.15,2013-04-08 21:34:00,
2013-04-08 16:35:00,71.0,58.6,29.76,SW,220,7.0,10.0,65,0.00,,,1.02,Wunderground v.1.15,2013-04-08 21:35:00,
2013-04-08 16:36:00,71.1,58.3,29.76,SW,232,8.0,10.0,64,0.00,,,1.02,Wunderground v.1.15,2013-04-08 21:36:00,
2013-04-08 16:39:00,71.4,58.6,29.76,SW,235,7.0,10.0,64,0.00,,,1.02,Wunderground v.1.15,2013-04-08 21:39:00,
2013-04-08 16:40:00,71.5,58.7,29.76,SSW,207,6.0,6.0,64,0.00,,,1.02,Wunderground v.1.15,2013-04-08 21:40:00,
2013-04-08 16:41:00,71.6,58.3,29.76,WSW,243,6.0,6.0,63,0.00,,,1.02,Wunderground v.1.15,2013-04-08 21:41:00,
2013-04-08 16:43:00,71.8,59.4,29.76,SW,228,5.0,8.0,65,0.00,,,1.02,Wunderground v.1.15,2013-04-08 21:43:00,
2013-04-08 16:45:00,71.7,58.0,29.76,WSW,238,5.0,11.0,62,0.00,,,1.02,Wunderground v.1.15,2013-04-08 21:45:00,
2013-04-08 16:47:00,72.0,59.6,29.77,SW,215,6.0,11.0,65,0.00,,,1.02,Wunderground v.1.15,2013-04-08 21:47:00,
2013-04-08 16:49:00,72.1,60.5,29.77,West,266,6.0,11.0,67,0.00,,,1.02,Wunderground v.1.15,2013-04-08 21:49:00,
2013-04-08 16:54:00,72.0,58.3,29.77,SW,226,7.0,10.0,62,0.00,,,1.02,Wunderground v.1.15,2013-04-08 21:54:00,
2013-04-08 16:57:00,72.0,58.3,29.77,WSW,239,6.0,10.0,62,0.00,,,1.02,Wunderground v.1.15,2013-04-08 21:57:00,
2013-04-08 16:59:00,72.1,59.2,29.77,SW,233,6.0,10.0,64,0.00,,,1.02,Wunderground v.1.15,2013-04-08 21:59:00,
2013-04-08 17:01:00,72.3,60.3,29.77,SSW,204,6.0,9.0,66,0.00,,,1.02,Wunderground v.1.15,2013-04-08 22:01:00,
2013-04-08 17:02:00,72.3,59.4,29.77,SW,226,6.0,9.0,64,0.00,,,1.02,Wunderground v.1.15,2013-04-08 22:02:00,
2013-04-08 17:04:00,72.3,59.0,29.77,SW,219,5.0,9.0,63,0.00,,,1.02,Wunderground v.1.15,2013-04-08 22:04:00,
2013-04-08 17:07:00,72.3,58.1,29.77,SSW,192,5.0,9.0,61,0.00,,,1.02,Wunderground v.1.15,2013-04-08 22:07:00,
2013-04-08 17:09:00,72.3,58.5,29.77,SSE,167,5.0,9.0,62,0.00,,,1.02,Wunderground v.1.15,2013-04-08 22:09:00,
2013-04-08 17:14:00,72.5,58.7,29.78,SW,222,5.0,5.0,62,0.00,,,1.02,Wunderground v.1.15,2013-04-08 22:14:00,
2013-04-08 17:15:00,72.6,59.3,29.77,WSW,248,5.0,6.0,63,0.00,,,1.02,Wunderground v.1.15,2013-04-08 22:15:00,
2013-04-08 17:19:00,72.3,58.5,29.78,SW,236,5.0,7.0,62,0.00,,,1.02,Wunderground v.1.15,2013-04-08 22:19:00,
2013-04-08 17:20:00,72.2,59.8,29.78,SW,215,5.0,7.0,65,0.00,,,1.02,Wunderground v.1.15,2013-04-08 22:20:00,
2013-04-08 17:21:00,72.1,59.7,29.78,SW,217,5.0,7.0,65,0.00,,,1.02,Wunderground v.1.15,2013-04-08 22:21:00,
2013-04-08 17:24:00,71.8,59.0,29.78,SW,219,6.0,7.0,64,0.00,,,1.02,Wunderground v.1.15,2013-04-08 22:24:00,
2013-04-08 17:26:00,71.7,58.9,29.78,SW,217,5.0,7.0,64,0.00,,,1.02,Wunderground v.1.15,2013-04-08 22:26:00,
2013-04-08 17:28:00,71.6,59.6,29.78,SW,217,5.0,7.0,66,0.00,,,1.02,Wunderground v.1.15,2013-04-08 22:28:00,
2013-04-08 17:31:00,71.4,59.4,29.78,SSW,208,4.0,7.0,66,0.00,,,1.02,Wunderground v.1.15,2013-04-08 22:31:00,
2013-04-08 17:32:00,71.4,59.4,29.78,SSW,205,4.0,7.0,66,0.00,,,1.02,Wunderground v.1.15,2013-04-08 22:32:00,
2013-04-08 17:33:00,71.3,59.8,29.78,SW,233,4.0,7.0,67,0.00,,,1.02,Wunderground v.1.15,2013-04-08 22:33:00,
2013-04-08 17:35:00,71.2,58.8,29.78,SW,233,4.0,7.0,65,0.00,,,1.02,Wunderground v.1.15,2013-04-08 22:35:00,
2013-04-08 17:37:00,71.1,58.7,29.78,SW,235,5.0,7.0,65,0.00,,,1.02,Wunderground v.1.15,2013-04-08 22:37:00,
2013-04-08 17:39:00,71.1,59.2,29.78,West,259,5.0,7.0,66,0.00,,,1.02,Wunderground v.1.15,2013-04-08 22:39:00,
2013-04-08 17:40:00,71.2,59.7,29.78,West,270,5.0,5.0,67,0.00,,,1.02,Wunderground v.1.15,2013-04-08 22:40:00,
2013-04-08 17:42:00,71.2,59.7,29.78,SSW,211,6.0,6.0,67,0.00,,,1.02,Wunderground v.1.15,2013-04-08 22:42:00,
2013-04-08 17:44:00,71.2,60.1,29.79,SW,225,5.0,6.0,68,0.00,,,1.02,Wunderground v.1.15,2013-04-08 22:44:00,
2013-04-08 17:46:00,71.2,59.3,29.79,SW,219,5.0,6.0,66,0.00,,,1.02,Wunderground v.1.15,2013-04-08 22:46:00,
2013-04-08 17:47:00,71.2,59.3,29.79,SSW,201,5.0,6.0,66,0.00,,,1.02,Wunderground v.1.15,2013-04-08 22:47:00,
2013-04-08 17:50:00,71.3,60.6,29.79,SSW,194,5.0,5.0,69,0.00,,,1.02,Wunderground v.1.15,2013-04-08 22:50:00,
2013-04-08 17:52:00,71.5,60.4,29.79,South,191,4.0,7.0,68,0.00,,,1.02,Wunderground v.1.15,2013-04-08 22:52:00,
2013-04-08 17:53:00,71.6,60.1,29.79,South,174,5.0,7.0,67,0.00,,,1.02,Wunderground v.1.15,2013-04-08 22:53:00,
2013-04-08 17:55:00,71.7,59.7,29.79,SSW,195,5.0,7.0,66,0.00,,,1.02,Wunderground v.1.15,2013-04-08 22:55:00,
2013-04-08 17:58:00,71.8,59.0,29.79,South,190,4.0,7.0,64,0.00,,,1.02,Wunderground v.1.15,2013-04-08 22:58:00,
2013-04-08 18:00:00,71.9,59.9,29.79,SSW,207,4.0,4.0,66,0.00,,,1.02,Wunderground v.1.15,2013-04-08 23:00:00,
2013-04-08 18:03:00,71.9,59.9,29.79,SSW,203,4.0,8.0,66,0.00,,,1.02,Wunderground v.1.15,2013-04-08 23:03:00,
2013-04-08 18:04:00,71.8,59.4,29.79,SSW,212,4.0,8.0,65,0.00,,,1.02,Wunderground v.1.15,2013-04-08 23:04:00,
2013-04-08 18:07:00,71.5,60.0,29.79,SW,217,4.0,8.0,67,0.00,,,1.02,Wunderground v.1.15,2013-04-08 23:07:00,
2013-04-08 18:11:00,71.1,59.6,29.79,SW,219,5.0,5.0,67,0.00,,,1.02,Wunderground v.1.15,2013-04-08 23:11:00,
2013-04-08 18:12:00,71.1,60.0,29.79,SSW,205,5.0,7.0,68,0.00,,,1.02,Wunderground v.1.15,2013-04-08 23:12:00,
2013-04-08 18:13:00,71.0,59.9,29.79,SW,224,5.0,7.0,68,0.00,,,1.02,Wunderground v.1.15,2013-04-08 23:13:00,
2013-04-08 18:14:00,70.9,60.2,29.79,SSW,203,5.0,7.0,69,0.00,,,1.02,Wunderground v.1.15,2013-04-08 23:14:00,
2013-04-08 18:17:00,70.7,59.6,29.79,South,169,4.0,7.0,68,0.00,,,1.02,Wunderground v.1.15,2013-04-08 23:17:00,
2013-04-08 18:18:00,70.7,59.6,29.79,SSW,203,4.0,7.0,68,0.00,,,1.02,Wunderground v.1.15,2013-04-08 23:18:00,
2013-04-08 18:19:00,70.6,59.5,29.79,South,188,5.0,7.0,68,0.00,,,1.02,Wunderground v.1.15,2013-04-08 23:19:00,
2013-04-08 18:20:00,70.6,59.5,29.79,SSW,210,5.0,5.0,68,0.00,,,1.02,Wunderground v.1.15,2013-04-08 23:20:00,
2013-04-08 18:26:00,70.3,60.1,29.79,SSW,198,4.0,5.0,70,0.00,,,1.02,Wunderground v.1.15,2013-04-08 23:26:00,
2013-04-08 18:27:00,70.2,60.0,29.79,SSW,207,4.0,5.0,70,0.00,,,1.02,Wunderground v.1.15,2013-04-08 23:27:00,
2013-04-08 18:28:00,70.1,59.9,29.79,SSW,203,4.0,5.0,70,0.00,,,1.02,Wunderground v.1.15,2013-04-08 23:28:00,
2013-04-08 18:31:00,70.0,59.8,29.79,SSW,207,3.0,4.0,70,0.00,,,1.02,Wunderground v.1.15,2013-04-08 23:31:00,
2013-04-08 18:32:00,70.0,59.8,29.79,SSW,207,3.0,4.0,70,0.00,,,1.02,Wunderground v.1.15,2013-04-08 23:32:00,
2013-04-08 18:34:00,69.9,59.7,29.79,SSW,210,3.0,4.0,70,0.00,,,1.02,Wunderground v.1.15,2013-04-08 23:34:00,
2013-04-08 18:36:00,69.8,60.0,29.79,SSW,212,3.0,4.0,71,0.00,,,1.02,Wunderground v.1.15,2013-04-08 23:36:00,
2013-04-08 18:39:00,69.6,60.2,29.80,SSW,212,3.0,4.0,72,0.00,,,1.02,Wunderground v.1.15,2013-04-08 23:39:00,
2013-04-08 18:40:00,69.6,60.2,29.80,SSW,212,3.0,3.0,72,0.00,,,1.02,Wunderground v.1.15,2013-04-08 23:40:00,
2013-04-08 18:41:00,69.5,60.1,29.79,SSW,212,3.0,3.0,72,0.00,,,1.02,Wunderground v.1.15,2013-04-08 23:41:00,
2013-04-08 18:45:00,69.2,59.8,29.79,SSW,208,2.0,3.0,72,0.00,,,1.02,Wunderground v.1.15,2013-04-08 23:45:00,
2013-04-08 18:47:00,69.2,59.8,29.80,SW,219,2.0,3.0,72,0.00,,,1.02,Wunderground v.1.15,2013-04-08 23:47:00,
2013-04-08 18:48:00,69.1,60.1,29.80,SSW,210,1.0,3.0,73,0.00,,,1.02,Wunderground v.1.15,2013-04-08 23:48:00,
2013-04-08 18:50:00,69.1,59.7,29.80,SSW,210,1.0,1.0,72,0.00,,,1.02,Wunderground v.1.15,2013-04-08 23:50:00,
2013-04-08 18:51:00,69.1,59.7,29.80,SSW,210,1.0,1.0,72,0.00,,,1.02,Wunderground v.1.15,2013-04-08 23:51:00,
2013-04-08 18:52:00,69.0,59.6,29.80,SW,219,1.0,1.0,72,0.00,,,1.02,Wunderground v.1.15,2013-04-08 23:52:00,
2013-04-08 18:56:00,68.9,59.1,29.80,SW,215,0.0,1.0,71,0.00,,,1.02,Wunderground v.1.15,2013-04-08 23:56:00,
2013-04-08 18:57:00,69.0,59.2,29.80,SSW,212,0.0,1.0,71,0.00,,,1.02,Wunderground v.1.15,2013-04-08 23:57:00,
2013-04-08 18:58:00,69.0,59.6,29.80,SSW,212,0.0,1.0,72,0.00,,,1.02,Wunderground v.1.15,2013-04-08 23:58:00,
2013-04-08 19:00:00,68.9,59.1,29.80,SSW,195,0.0,0.0,71,0.00,,,1.02,Wunderground v.1.15,2013-04-09 00:00:00,
2013-04-08 19:02:00,68.9,59.1,29.80,SSE,156,0.0,0.0,71,0.00,,,1.02,Wunderground v.1.15,2013-04-09 00:02:00,
2013-04-08 19:06:00,68.9,58.7,29.80,SE,143,0.0,1.0,70,0.00,,,1.02,Wunderground v.1.15,2013-04-09 00:06:00,
2013-04-08 19:07:00,68.9,58.7,29.80,SSE,148,0.0,1.0,70,0.00,,,1.02,Wunderground v.1.15,2013-04-09 00:07:00,
2013-04-08 19:08:00,68.9,59.1,29.80,SE,139,0.0,1.0,71,0.00,,,1.02,Wunderground v.1.15,2013-04-09 00:08:00,
2013-04-08 19:09:00,68.9,59.1,29.80,SE,142,0.0,1.0,71,0.00,,,1.02,Wunderground v.1.15,2013-04-09 00:09:00,
2013-04-08 19:11:00,68.9,59.1,29.80,SE,143,0.0,0.0,71,0.00,,,1.02,Wunderground v.1.15,2013-04-09 00:11:00,
2013-04-08 19:13:00,68.8,59.0,29.80,SE,142,0.0,0.0,71,0.00,,,1.02,Wunderground v.1.15,2013-04-09 00:13:00,
2013-04-08 19:16:00,68.8,59.0,29.80,SSE,148,0.0,0.0,71,0.00,,,1.02,Wunderground v.1.15,2013-04-09 00:16:00,
2013-04-08 19:19:00,68.7,58.9,29.80,SSE,160,0.0,0.0,71,0.00,,,1.02,Wunderground v.1.15,2013-04-09 00:19:00,
2013-04-08 19:21:00,68.7,58.9,29.80,SSE,156,0.0,0.0,71,0.00,,,1.02,Wunderground v.1.15,2013-04-09 00:21:00,
2013-04-08 19:24:00,68.6,58.8,29.80,SSE,156,0.0,0.0,71,0.00,,,1.02,Wunderground v.1.15,2013-04-09 00:24:00,
2013-04-08 19:26:00,68.6,58.8,29.80,SSE,156,0.0,0.0,71,0.00,,,1.02,Wunderground v.1.15,2013-04-09 00:26:00,
2013-04-08 19:27:00,68.6,58.8,29.80,SSE,156,0.0,0.0,71,0.00,,,1.02,Wunderground v.1.15,2013-04-09 00:27:00,
2013-04-08 19:31:00,68.5,58.7,29.81,SSE,155,0.0,0.0,71,0.00,,,1.02,Wunderground v.1.15,2013-04-09 00:31:00,
2013-04-08 19:33:00,68.4,58.6,29.81,SSE,148,0.0,0.0,71,0.00,,,1.02,Wunderground v.1.15,2013-04-09 00:33:00,
2013-04-08 19:36:00,68.4,58.6,29.81,SE,128,0.0,0.0,71,0.00,,,1.02,Wunderground v.1.15,2013-04-09 00:36:00,
2013-04-08 19:38:00,68.4,58.6,29.81,SE,129,0.0,0.0,71,0.00,,,1.02,Wunderground v.1.15,2013-04-09 00:38:00,
2013-04-08 19:39:00,68.4,58.6,29.80,SE,129,0.0,0.0,71,0.00,,,1.02,Wunderground v.1.15,2013-04-09 00:39:00,
2013-04-08 19:42:00,68.3,58.5,29.81,SE,129,0.0,0.0,71,0.00,,,1.02,Wunderground v.1.15,2013-04-09 00:42:00,
2013-04-08 19:43:00,68.3,58.5,29.81,SE,129,0.0,0.0,71,0.00,,,1.02,Wunderground v.1.15,2013-04-09 00:43:00,
2013-04-08 19:44:00,68.2,58.4,29.81,SE,128,0.0,0.0,71,0.00,,,1.02,Wunderground v.1.15,2013-04-09 00:44:00,
2013-04-08 19:45:00,68.2,58.4,29.81,ESE,123,0.0,0.0,71,0.00,,,1.02,Wunderground v.1.15,2013-04-09 00:45:00,
2013-04-08 19:49:00,68.1,58.7,29.80,ESE,108,0.0,0.0,72,0.00,,,1.02,Wunderground v.1.15,2013-04-09 00:49:00,
2013-04-08 19:52:00,68.0,58.6,29.80,ESE,108,0.0,0.0,72,0.00,,,1.02,Wunderground v.1.15,2013-04-09 00:52:00,
2013-04-08 19:53:00,67.9,58.5,29.80,ESE,107,0.0,0.0,72,0.00,,,1.02,Wunderground v.1.15,2013-04-09 00:53:00,
2013-04-08 19:55:00,67.8,58.4,29.81,ESE,113,0.0,0.0,72,0.00,,,1.02,Wunderground v.1.15,2013-04-09 00:55:00,
2013-04-08 19:56:00,67.8,58.4,29.81,ESE,113,0.0,0.0,72,0.00,,,1.02,Wunderground v.1.15,2013-04-09 00:56:00,
2013-04-08 19:58:00,67.7,58.3,29.81,ESE,113,0.0,0.0,72,0.00,,,1.02,Wunderground v.1.15,2013-04-09 00:58:00,
2013-04-08 19:59:00,67.6,58.2,29.81,ESE,113,0.0,0.0,72,0.00,,,1.02,Wunderground v.1.15,2013-04-09 00:59:00,
2013-04-08 20:00:00,67.5,58.2,29.81,ESE,113,0.0,0.0,72,0.00,,,1.02,Wunderground v.1.15,2013-04-09 01:00:00,
2013-04-08 20:04:00,67.3,58.3,29.81,ESE,113,0.0,0.0,73,0.00,,,1.02,Wunderground v.1.15,2013-04-09 01:04:00,
2013-04-08 20:05:00,67.2,58.2,29.81,ESE,113,0.0,0.0,73,0.00,,,1.02,Wunderground v.1.15,2013-04-09 01:05:00,
2013-04-08 20:07:00,67.1,58.2,29.81,ESE,113,0.0,0.0,73,0.00,,,1.02,Wunderground v.1.15,2013-04-09 01:07:00,
2013-04-08 20:09:00,66.8,58.2,29.82,ESE,113,0.0,0.0,74,0.00,,,1.02,Wunderground v.1.15,2013-04-09 01:09:00,
2013-04-08 20:10:00,66.7,58.1,29.82,ESE,113,0.0,0.0,74,0.00,,,1.02,Wunderground v.1.15,2013-04-09 01:10:00,
2013-04-08 20:14:00,66.2,58.0,29.82,ESE,113,0.0,0.0,75,0.00,,,1.02,Wunderground v.1.15,2013-04-09 01:14:00,
2013-04-08 20:16:00,66.0,57.8,29.82,ESE,113,0.0,0.0,75,0.00,,,1.02,Wunderground v.1.15,2013-04-09 01:16:00,
2013-04-08 20:17:00,66.0,57.8,29.82,ESE,113,0.0,0.0,75,0.00,,,1.02,Wunderground v.1.15,2013-04-09 01:17:00,
2013-04-08 20:21:00,65.7,57.9,29.82,ESE,113,0.0,0.0,76,0.00,,,1.02,Wunderground v.1.15,2013-04-09 01:21:00,
2013-04-08 20:22:00,65.6,57.8,29.82,ESE,113,0.0,0.0,76,0.00,,,1.02,Wunderground v.1.15,2013-04-09 01:22:00,
2013-04-08 20:23:00,65.6,57.8,29.82,ESE,113,0.0,0.0,76,0.00,,,1.02,Wunderground v.1.15,2013-04-09 01:23:00,
2013-04-08 20:26:00,65.4,58.0,29.82,NNE,23,0.0,0.0,77,0.00,,,1.02,Wunderground v.1.15,2013-04-09 01:26:00,
2013-04-08 20:28:00,65.2,57.8,29.82,NNE,23,0.0,0.0,77,0.00,,,1.02,Wunderground v.1.15,2013-04-09 01:28:00,
2013-04-08 20:29:00,65.2,57.8,29.83,NNE,23,0.0,0.0,77,0.00,,,1.02,Wunderground v.1.15,2013-04-09 01:29:00,
2013-04-08 20:30:00,65.1,58.1,29.83,NNE,23,0.0,0.0,78,0.00,,,1.02,Wunderground v.1.15,2013-04-09 01:30:00,
2013-04-08 20:31:00,65.0,58.0,29.83,NNE,23,0.0,0.0,78,0.00,,,1.02,Wunderground v.1.15,2013-04-09 01:31:00,
2013-04-08 20:33:00,64.9,57.9,29.83,NNE,23,0.0,0.0,78,0.00,,,1.02,Wunderground v.1.15,2013-04-09 01:33:00,
2013-04-08 20:36:00,64.7,57.7,29.83,NNE,23,0.0,0.0,78,0.00,,,1.02,Wunderground v.1.15,2013-04-09 01:36:00,
2013-04-08 20:39:00,64.6,57.9,29.83,NNE,23,0.0,0.0,79,0.00,,,1.02,Wunderground v.1.15,2013-04-09 01:39:00,
2013-04-08 20:42:00,64.5,57.8,29.83,NNE,23,0.0,0.0,79,0.00,,,1.02,Wunderground v.1.15,2013-04-09 01:42:00,
2013-04-08 20:45:00,64.4,58.1,29.83,ESE,107,0.0,0.0,80,0.00,,,1.02,Wunderground v.1.15,2013-04-09 01:45:00,
2013-04-08 20:48:00,64.3,58.3,29.83,ESE,107,0.0,0.0,81,0.00,,,1.02,Wunderground v.1.15,2013-04-09 01:48:00,
2013-04-08 20:51:00,64.0,58.1,29.83,ESE,107,0.0,0.0,81,0.00,,,1.02,Wunderground v.1.15,2013-04-09 01:51:00,
2013-04-08 20:55:00,63.6,57.7,29.83,ESE,108,0.0,0.0,81,0.00,,,1.02,Wunderground v.1.15,2013-04-09 01:55:00,
2013-04-08 20:57:00,63.4,57.8,29.83,ESE,108,0.0,0.0,82,0.00,,,1.02,Wunderground v.1.15,2013-04-09 01:57:00,
2013-04-08 20:59:00,63.3,57.7,29.83,ESE,108,0.0,0.0,82,0.00,,,1.02,Wunderground v.1.15,2013-04-09 01:59:00,
2013-04-08 21:00:00,63.1,57.5,29.83,ESE,108,0.0,0.0,82,0.00,,,1.02,Wunderground v.1.15,2013-04-09 02:00:00,
2013-04-08 21:04:00,62.9,57.7,29.83,ESE,108,0.0,0.0,83,0.00,,,1.02,Wunderground v.1.15,2013-04-09 02:04:00,
2013-04-08 21:05:00,62.8,57.6,29.83,ESE,107,0.0,0.0,83,0.00,,,1.02,Wunderground v.1.15,2013-04-09 02:05:00,
2013-04-08 21:06:00,62.8,57.6,29.84,ESE,108,0.0,0.0,83,0.00,,,1.02,Wunderground v.1.15,2013-04-09 02:06:00,
2013-04-08 21:07:00,62.7,57.5,29.83,ESE,108,0.0,0.0,83,0.00,,,1.02,Wunderground v.1.15,2013-04-09 02:07:00,
2013-04-08 21:12:00,62.6,57.7,29.83,ESE,107,0.0,0.0,84,0.00,,,1.02,Wunderground v.1.15,2013-04-09 02:12:00,
2013-04-08 21:13:00,62.6,57.7,29.84,ESE,108,0.0,0.0,84,0.00,,,1.02,Wunderground v.1.15,2013-04-09 02:13:00,
2013-04-08 21:14:00,62.6,57.7,29.84,ESE,108,0.0,0.0,84,0.00,,,1.02,Wunderground v.1.15,2013-04-09 02:14:00,
2013-04-08 21:17:00,62.6,57.7,29.84,ESE,108,0.0,0.0,84,0.00,,,1.02,Wunderground v.1.15,2013-04-09 02:17:00,
2013-04-08 21:20:00,62.6,57.7,29.84,ESE,108,0.0,0.0,84,0.00,,,1.02,Wunderground v.1.15,2013-04-09 02:20:00,
2013-04-08 21:21:00,62.6,57.7,29.84,ESE,107,0.0,0.0,84,0.00,,,1.02,Wunderground v.1.15,2013-04-09 02:21:00,
2013-04-08 21:22:00,62.6,57.7,29.84,ESE,108,0.0,0.0,84,0.00,,,1.02,Wunderground v.1.15,2013-04-09 02:22:00,
2013-04-08 21:26:00,62.2,57.3,29.84,ENE,73,0.0,0.0,84,0.00,,,1.02,Wunderground v.1.15,2013-04-09 02:26:00,
2013-04-08 21:27:00,62.2,57.3,29.84,ENE,68,0.0,0.0,84,0.00,,,1.02,Wunderground v.1.15,2013-04-09 02:27:00,
2013-04-08 21:28:00,62.2,57.6,29.85,ENE,68,0.0,0.0,85,0.00,,,1.02,Wunderground v.1.15,2013-04-09 02:28:00,
2013-04-08 21:30:00,62.2,57.6,29.84,ENE,68,0.0,0.0,85,0.00,,,1.02,Wunderground v.1.15,2013-04-09 02:30:00,
2013-04-08 21:35:00,62.9,57.7,29.85,East,81,0.0,0.0,83,0.00,,,1.02,Wunderground v.1.15,2013-04-09 02:35:00,
2013-04-08 21:36:00,63.0,57.8,29.85,East,81,0.0,0.0,83,0.00,,,1.02,Wunderground v.1.15,2013-04-09 02:36:00,
2013-04-08 21:37:00,63.1,57.9,29.85,East,81,0.0,0.0,83,0.00,,,1.02,Wunderground v.1.15,2013-04-09 02:37:00,
2013-04-08 21:38:00,63.2,57.6,29.85,East,81,0.0,0.0,82,0.00,,,1.02,Wunderground v.1.15,2013-04-09 02:38:00,
2013-04-08 21:40:00,63.3,57.7,29.85,East,80,0.0,0.0,82,0.00,,,1.02,Wunderground v.1.15,2013-04-09 02:40:00,
2013-04-08 21:44:00,63.7,57.8,29.85,East,84,0.0,0.0,81,0.00,,,1.02,Wunderground v.1.15,2013-04-09 02:44:00,
2013-04-08 21:46:00,63.8,57.9,29.85,East,81,0.0,0.0,81,0.00,,,1.02,Wunderground v.1.15,2013-04-09 02:46:00,
2013-04-08 21:47:00,63.9,58.0,29.85,East,92,0.0,0.0,81,0.00,,,1.02,Wunderground v.1.15,2013-04-09 02:47:00,
2013-04-08 21:48:00,64.0,58.1,29.85,East,92,0.0,0.0,81,0.00,,,1.02,Wunderground v.1.15,2013-04-09 02:48:00,
2013-04-08 21:51:00,64.2,57.9,29.85,East,98,0.0,0.0,80,0.00,,,1.02,Wunderground v.1.15,2013-04-09 02:51:00,
2013-04-08 21:53:00,64.3,58.0,29.85,East,98,0.0,0.0,80,0.00,,,1.02,Wunderground v.1.15,2013-04-09 02:53:00,
2013-04-08 21:54:00,64.3,58.0,29.85,East,98,0.0,0.0,80,0.00,,,1.02,Wunderground v.1.15,2013-04-09 02:54:00,
2013-04-08 21:58:00,64.4,57.7,29.85,ENE,72,0.0,0.0,79,0.00,,,1.02,Wunderground v.1.15,2013-04-09 02:58:00,
2013-04-08 22:00:00,64.3,57.6,29.85,East,94,0.0,0.0,79,0.00,,,1.02,Wunderground v.1.15,2013-04-09 03:00:00,
2013-04-08 22:01:00,64.3,57.6,29.85,East,93,0.0,0.0,79,0.00,,,1.02,Wunderground v.1.15,2013-04-09 03:01:00,
2013-04-08 22:05:00,64.0,57.7,29.85,ENE,77,0.0,0.0,80,0.00,,,1.02,Wunderground v.1.15,2013-04-09 03:05:00,
2013-04-08 22:06:00,64.0,57.7,29.85,ENE,76,0.0,0.0,80,0.00,,,1.02,Wunderground v.1.15,2013-04-09 03:06:00,
2013-04-08 22:07:00,63.9,57.6,29.85,ENE,77,0.0,0.0,80,0.00,,,1.02,Wunderground v.1.15,2013-04-09 03:07:00,
2013-04-08 22:11:00,63.5,57.2,29.85,ENE,68,0.0,0.0,80,0.00,,,1.02,Wunderground v.1.15,2013-04-09 03:11:00,
2013-04-08 22:13:00,63.3,57.4,29.85,ENE,68,0.0,0.0,81,0.00,,,1.02,Wunderground v.1.15,2013-04-09 03:13:00,
2013-04-08 22:16:00,63.3,57.4,29.85,NE,56,0.0,0.0,81,0.00,,,1.02,Wunderground v.1.15,2013-04-09 03:16:00,
2013-04-08 22:21:00,63.5,57.6,29.85,East,85,0.0,0.0,81,0.00,,,1.02,Wunderground v.1.15,2013-04-09 03:21:00,
2013-04-08 22:22:00,63.7,57.8,29.85,East,84,0.0,0.0,81,0.00,,,1.02,Wunderground v.1.15,2013-04-09 03:22:00,
2013-04-08 22:27:00,63.8,57.5,29.85,NE,53,0.0,0.0,80,0.00,,,1.02,Wunderground v.1.15,2013-04-09 03:27:00,
2013-04-08 22:28:00,63.8,57.5,29.85,ENE,78,0.0,0.0,80,0.00,,,1.02,Wunderground v.1.15,2013-04-09 03:28:00,
2013-04-08 22:29:00,63.9,57.6,29.85,ENE,78,0.0,0.0,80,0.00,,,1.02,Wunderground v.1.15,2013-04-09 03:29:00,
2013-04-08 22:32:00,63.9,57.6,29.85,ENE,71,0.0,0.0,80,0.00,,,1.02,Wunderground v.1.15,2013-04-09 03:32:00,
2013-04-08 22:33:00,63.9,57.6,29.85,East,79,0.0,0.0,80,0.00,,,1.02,Wunderground v.1.15,2013-04-09 03:33:00,
2013-04-08 22:34:00,63.9,57.6,29.85,East,98,0.0,0.0,80,0.00,,,1.02,Wunderground v.1.15,2013-04-09 03:34:00,
2013-04-08 22:38:00,64.0,57.7,29.85,East,88,0.0,0.0,80,0.00,,,1.02,Wunderground v.1.15,2013-04-09 03:38:00,
2013-04-08 22:39:00,64.1,58.1,29.85,East,87,0.0,0.0,81,0.00,,,1.02,Wunderground v.1.15,2013-04-09 03:39:00,
2013-04-08 22:42:00,64.2,57.9,29.85,East,88,0.0,0.0,80,0.00,,,1.02,Wunderground v.1.15,2013-04-09 03:42:00,
2013-04-08 22:44:00,64.3,58.0,29.85,East,83,0.0,0.0,80,0.00,,,1.02,Wunderground v.1.15,2013-04-09 03:44:00,
2013-04-08 22:46:00,64.3,58.0,29.85,East,79,0.0,0.0,80,0.00,,,1.02,Wunderground v.1.15,2013-04-09 03:46:00,
2013-04-08 22:49:00,64.2,57.9,29.85,East,79,0.0,0.0,80,0.00,,,1.02,Wunderground v.1.15,2013-04-09 03:49:00,
2013-04-08 22:51:00,64.1,58.1,29.85,East,88,0.0,1.0,81,0.00,,,1.02,Wunderground v.1.15,2013-04-09 03:51:00,
2013-04-08 22:52:00,64.1,58.1,29.85,East,81,0.0,1.0,81,0.00,,,1.02,Wunderground v.1.15,2013-04-09 03:52:00,
2013-04-08 22:54:00,64.1,58.1,29.85,East,86,0.0,1.0,81,0.00,,,1.02,Wunderground v.1.15,2013-04-09 03:54:00,
2013-04-08 22:59:00,64.0,58.1,29.86,East,83,0.0,1.0,81,0.00,,,1.02,Wunderground v.1.15,2013-04-09 03:59:00,
2013-04-08 23:00:00,64.0,58.1,29.85,East,83,0.0,0.0,81,0.00,,,1.02,Wunderground v.1.15,2013-04-09 04:00:00,
2013-04-08 23:01:00,63.9,58.0,29.85,East,84,0.0,0.0,81,0.00,,,1.02,Wunderground v.1.15,2013-04-09 04:01:00,
2013-04-08 23:02:00,63.9,58.0,29.85,East,83,0.0,0.0,81,0.00,,,1.02,Wunderground v.1.15,2013-04-09 04:02:00,
2013-04-08 23:06:00,63.8,58.2,29.85,East,83,0.0,0.0,82,0.00,,,1.02,Wunderground v.1.15,2013-04-09 04:06:00,
2013-04-08 23:08:00,63.7,58.1,29.85,East,84,0.0,0.0,82,0.00,,,1.02,Wunderground v.1.15,2013-04-09 04:08:00,
2013-04-08 23:10:00,63.6,58.0,29.85,East,99,0.0,0.0,82,0.00,,,1.02,Wunderground v.1.15,2013-04-09 04:10:00,
2013-04-08 23:11:00,63.6,58.0,29.85,East,98,0.0,0.0,82,0.00,,,1.02,Wunderground v.1.15,2013-04-09 04:11:00,
2013-04-08 23:12:00,63.5,57.9,29.85,East,99,0.0,0.0,82,0.00,,,1.02,Wunderground v.1.15,2013-04-09 04:12:00,
2013-04-08 23:17:00,63.4,58.1,29.85,SE,134,0.0,0.0,83,0.00,,,1.02,Wunderground v.1.15,2013-04-09 04:17:00,
2013-04-08 23:18:00,63.3,58.0,29.85,SE,132,0.0,0.0,83,0.00,,,1.02,Wunderground v.1.15,2013-04-09 04:18:00,
2013-04-08 23:19:00,63.3,58.0,29.85,SE,134,0.0,0.0,83,0.00,,,1.02,Wunderground v.1.15,2013-04-09 04:19:00,
2013-04-08 23:23:00,63.2,58.3,29.85,East,85,0.0,0.0,84,0.00,,,1.02,Wunderground v.1.15,2013-04-09 04:23:00,
2013-04-08 23:24:00,63.2,58.3,29.85,East,85,0.0,0.0,84,0.00,,,1.02,Wunderground v.1.15,2013-04-09 04:24:00,
2013-04-08 23:27:00,63.1,58.2,29.85,East,82,0.0,0.0,84,0.00,,,1.02,Wunderground v.1.15,2013-04-09 04:27:00,
2013-04-08 23:30:00,62.9,58.0,29.85,East,82,0.0,0.0,84,0.00,,,1.02,Wunderground v.1.15,2013-04-09 04:30:00,
2013-04-08 23:32:00,62.9,58.3,29.85,East,82,0.0,0.0,85,0.00,,,1.02,Wunderground v.1.15,2013-04-09 04:32:00,
2013-04-08 23:35:00,62.8,58.2,29.85,ENE,71,0.0,0.0,85,0.00,,,1.02,Wunderground v.1.15,2013-04-09 04:35:00,
2013-04-08 23:37:00,62.8,58.2,29.85,ENE,72,0.0,0.0,85,0.00,,,1.02,Wunderground v.1.15,2013-04-09 04:37:00,
2013-04-08 23:40:00,62.6,58.0,29.85,ENE,77,0.0,0.0,85,0.00,,,1.02,Wunderground v.1.15,2013-04-09 04:40:00,
2013-04-08 23:43:00,62.4,57.8,29.85,ENE,76,0.0,0.0,85,0.00,,,1.02,Wunderground v.1.15,2013-04-09 04:43:00,
2013-04-08 23:46:00,62.2,58.0,29.85,ENE,76,0.0,0.0,86,0.00,,,1.02,Wunderground v.1.15,2013-04-09 04:46:00,
2013-04-08 23:47:00,62.2,58.0,29.85,ENE,75,0.0,0.0,86,0.00,,,1.02,Wunderground v.1.15,2013-04-09 04:47:00,
2013-04-08 23:50:00,62.1,57.9,29.85,ENE,75,0.0,0.0,86,0.00,,,1.02,Wunderground v.1.15,2013-04-09 04:50:00,
2013-04-08 23:51:00,62.0,57.8,29.85,ENE,75,0.0,0.0,86,0.00,,,1.02,Wunderground v.1.15,2013-04-09 04:51:00,
2013-04-08 23:52:00,62.0,57.8,29.85,ENE,75,0.0,0.0,86,0.00,,,1.02,Wunderground v.1.15,2013-04-09 04:52:00,
2013-04-08 23:56:00,62.0,58.1,29.85,East,86,0.0,0.0,87,0.00,,,1.02,Wunderground v.1.15,2013-04-09 04:56:00,
2013-04-08 23:58:00,62.1,58.2,29.85,East,86,0.0,0.0,87,0.00,,,1.02,Wunderground v.1.15,2013-04-09 04:58:00,